Time,TemperatureF,DewpointF,PressureIn,WindDirection,WindDirectionDegrees,WindSpeedMPH,WindSpeedGustMPH,Humidity,HourlyPrecipIn,Conditions,Clouds,dailyrainin,SoftwareType,DateUTC
2013-04-23 00:01:00,49.6,35.8,30.11,SSE,154,2.0,3.0,59,0.00,,,0.00,Wunderground v.1.15,2013-04-23 04:01:00,
2013-04-23 00:02:00,49.6,35.8,30.11,SSE,153,1.0,3.0,59,0.00,,,0.00,Wunderground v.1.15,2013-04-23 04:02:00,
2013-04-23 00:03:00,49.6,35.8,30.11,SSE,155,0.0,3.0,59,0.00,,,0.00,Wunderground v.1.15,2013-04-23 04:03:00,
2013-04-23 00:05:00,49.6,35.8,30.11,SSE,160,1.0,3.0,59,0.00,,,0.00,Wunderground v.1.15,2013-04-23 04:05:00,
2013-04-23 00:06:00,49.6,35.8,30.11,SSE,155,0.0,3.0,59,0.00,,,0.00,Wunderground v.1.15,2013-04-23 04:06:00,
2013-04-23 00:08:00,49.6,35.8,30.11,SSE,153,1.0,3.0,59,0.00,,,0.00,Wunderground v.1.15,2013-04-23 04:08:00,
2013-04-23 00:11:00,49.6,35.8,30.11,SSE,153,1.0,2.0,59,0.00,,,0.00,Wunderground v.1.15,2013-04-23 04:11:00,
2013-04-23 00:12:00,49.6,35.8,30.11,SSE,156,2.0,2.0,59,0.00,,,0.00,Wunderground v.1.15,2013-04-23 04:12:00,
2013-04-23 00:16:00,49.6,35.8,30.11,SSE,156,0.0,3.0,59,0.00,,,0.00,Wunderground v.1.15,2013-04-23 04:16:00,
2013-04-23 00:18:00,49.6,35.8,30.11,SSE,155,1.0,3.0,59,0.00,,,0.00,Wunderground v.1.15,2013-04-23 04:18:00,
2013-04-23 00:20:00,49.7,35.9,30.11,SSE,157,2.0,2.0,59,0.00,,,0.00,Wunderground v.1.15,2013-04-23 04:20:00,
2013-04-23 00:21:00,49.7,36.4,30.11,SSE,157,3.0,3.0,60,0.00,,,0.00,Wunderground v.1.15,2013-04-23 04:21:00,
2013-04-23 00:24:00,49.7,36.4,30.11,SSE,157,3.0,3.0,60,0.00,,,0.00,Wunderground v.1.15,2013-04-23 04:24:00,
2013-04-23 00:27:00,49.7,36.4,30.11,SSE,155,2.0,3.0,60,0.00,,,0.00,Wunderground v.1.15,2013-04-23 04:27:00,
2013-04-23 00:28:00,49.7,36.4,30.11,SSE,159,1.0,3.0,60,0.00,,,0.00,Wunderground v.1.15,2013-04-23 04:28:00,
2013-04-23 00:29:00,49.7,36.4,30.10,SSE,155,2.0,3.0,60,0.00,,,0.00,Wunderground v.1.15,2013-04-23 04:29:00,
2013-04-23 00:30:00,49.7,36.4,30.11,SSE,155,2.0,2.0,60,0.00,,,0.00,Wunderground v.1.15,2013-04-23 04:30:00,
2013-04-23 00:31:00,49.7,36.4,30.10,South,169,1.0,2.0,60,0.00,,,0.00,Wunderground v.1.15,2013-04-23 04:31:00,
2013-04-23 00:34:00,49.7,36.8,30.10,SSE,161,2.0,2.0,61,0.00,,,0.00,Wunderground v.1.15,2013-04-23 04:34:00,
2013-04-23 00:39:00,49.7,36.8,30.10,SSE,153,5.0,5.0,61,0.00,,,0.00,Wunderground v.1.15,2013-04-23 04:39:00,
2013-04-23 00:41:00,49.7,36.8,30.10,SSE,156,1.0,3.0,61,0.00,,,0.00,Wunderground v.1.15,2013-04-23 04:41:00,
2013-04-23 00:44:00,49.8,36.9,30.10,SSE,157,3.0,3.0,61,0.00,,,0.00,Wunderground v.1.15,2013-04-23 04:44:00,
2013-04-23 00:45:00,49.7,36.8,30.10,SSE,159,2.0,3.0,61,0.00,,,0.00,Wunderground v.1.15,2013-04-23 04:45:00,
2013-04-23 00:46:00,49.8,36.9,30.10,SSE,159,2.0,3.0,61,0.00,,,0.00,Wunderground v.1.15,2013-04-23 04:46:00,
2013-04-23 00:47:00,49.8,36.9,30.10,SSE,156,1.0,3.0,61,0.00,,,0.00,Wunderground v.1.15,2013-04-23 04:47:00,
2013-04-23 00:50:00,49.8,37.3,30.10,SSE,158,2.0,2.0,62,0.00,,,0.00,Wunderground v.1.15,2013-04-23 04:50:00,
2013-04-23 00:52:00,49.8,37.3,30.10,SSE,161,4.0,4.0,62,0.00,,,0.00,Wunderground v.1.15,2013-04-23 04:52:00,
2013-04-23 00:53:00,49.8,37.3,30.10,SSE,156,3.0,4.0,62,0.00,,,0.00,Wunderground v.1.15,2013-04-23 04:53:00,
2013-04-23 00:55:00,49.8,37.3,30.10,SSE,157,2.0,4.0,62,0.00,,,0.00,Wunderground v.1.15,2013-04-23 04:55:00,
2013-04-23 00:57:00,49.8,37.3,30.10,SSE,159,2.0,4.0,62,0.00,,,0.00,Wunderground v.1.15,2013-04-23 04:57:00,
2013-04-23 00:59:00,49.8,37.3,30.10,SSE,152,2.0,4.0,62,0.00,,,0.00,Wunderground v.1.15,2013-04-23 04:59:00,
2013-04-23 01:00:00,49.8,37.3,30.10,SSE,157,3.0,3.0,62,0.00,,,0.00,Wunderground v.1.15,2013-04-23 05:00:00,
2013-04-23 01:02:00,49.8,37.3,30.10,SSE,160,5.0,5.0,62,0.00,,,0.00,Wunderground v.1.15,2013-04-23 05:02:00,
2013-04-23 01:08:00,49.9,37.4,30.10,SSE,157,3.0,5.0,62,0.00,,,0.00,Wunderground v.1.15,2013-04-23 05:08:00,
2013-04-23 01:09:00,49.9,37.4,30.10,SSE,152,2.0,5.0,62,0.00,,,0.00,Wunderground v.1.15,2013-04-23 05:09:00,
2013-04-23 01:11:00,49.9,37.4,30.10,SSE,164,3.0,4.0,62,0.00,,,0.00,Wunderground v.1.15,2013-04-23 05:11:00,
2013-04-23 01:14:00,49.9,37.4,30.10,SSE,159,4.0,4.0,62,0.00,,,0.00,Wunderground v.1.15,2013-04-23 05:14:00,
2013-04-23 01:17:00,49.9,37.8,30.10,SSE,165,4.0,4.0,63,0.00,,,0.00,Wunderground v.1.15,2013-04-23 05:17:00,
2013-04-23 01:20:00,49.9,37.8,30.10,SSE,157,4.0,4.0,63,0.00,,,0.00,Wunderground v.1.15,2013-04-23 05:20:00,
2013-04-23 01:22:00,49.8,37.7,30.10,SSE,162,2.0,5.0,63,0.00,,,0.00,Wunderground v.1.15,2013-04-23 05:22:00,
2013-04-23 01:23:00,49.8,37.7,30.10,South,169,3.0,5.0,63,0.00,,,0.00,Wunderground v.1.15,2013-04-23 05:23:00,
2013-04-23 01:24:00,49.8,37.7,30.10,SE,132,3.0,5.0,63,0.00,,,0.00,Wunderground v.1.15,2013-04-23 05:24:00,
2013-04-23 01:25:00,49.8,37.7,30.10,SSE,164,4.0,5.0,63,0.00,,,0.00,Wunderground v.1.15,2013-04-23 05:25:00,
2013-04-23 01:26:00,49.8,37.7,30.10,SSE,155,4.0,5.0,63,0.00,,,0.00,Wunderground v.1.15,2013-04-23 05:26:00,
2013-04-23 01:29:00,49.7,37.6,30.10,SSE,160,3.0,5.0,63,0.00,,,0.00,Wunderground v.1.15,2013-04-23 05:29:00,
2013-04-23 01:30:00,49.7,37.6,30.10,SSE,157,3.0,3.0,63,0.00,,,0.00,Wunderground v.1.15,2013-04-23 05:30:00,
2013-04-23 01:32:00,49.7,38.0,30.10,SSE,157,3.0,3.0,64,0.00,,,0.00,Wunderground v.1.15,2013-04-23 05:32:00,
2013-04-23 01:33:00,49.7,38.0,30.10,SSE,160,3.0,3.0,64,0.00,,,0.00,Wunderground v.1.15,2013-04-23 05:33:00,
2013-04-23 01:35:00,49.7,38.0,30.10,SSE,151,3.0,4.0,64,0.00,,,0.00,Wunderground v.1.15,2013-04-23 05:35:00,
2013-04-23 01:36:00,49.7,38.0,30.10,SSE,156,3.0,4.0,64,0.00,,,0.00,Wunderground v.1.15,2013-04-23 05:36:00,
2013-04-23 01:41:00,49.7,38.0,30.09,SSE,159,3.0,4.0,64,0.00,,,0.00,Wunderground v.1.15,2013-04-23 05:41:00,
2013-04-23 01:42:00,49.7,38.0,30.09,SSE,154,4.0,4.0,64,0.00,,,0.00,Wunderground v.1.15,2013-04-23 05:42:00,
2013-04-23 01:44:00,49.7,38.0,30.09,SSE,153,4.0,4.0,64,0.00,,,0.00,Wunderground v.1.15,2013-04-23 05:44:00,
2013-04-23 01:47:00,49.7,38.0,30.09,SSE,148,2.0,4.0,64,0.00,,,0.00,Wunderground v.1.15,2013-04-23 05:47:00,
2013-04-23 01:48:00,49.7,38.0,30.09,SSE,148,3.0,4.0,64,0.00,,,0.00,Wunderground v.1.15,2013-04-23 05:48:00,
2013-04-23 01:51:00,49.7,38.0,30.09,SSE,148,4.0,4.0,64,0.00,,,0.00,Wunderground v.1.15,2013-04-23 05:51:00,
2013-04-23 01:52:00,49.7,38.0,30.09,SSE,163,4.0,4.0,64,0.00,,,0.00,Wunderground v.1.15,2013-04-23 05:52:00,
2013-04-23 01:56:00,49.7,38.4,30.09,SE,146,4.0,4.0,65,0.00,,,0.00,Wunderground v.1.15,2013-04-23 05:56:00,
2013-04-23 01:57:00,49.6,38.3,30.09,SSE,157,4.0,4.0,65,0.00,,,0.00,Wunderground v.1.15,2013-04-23 05:57:00,
2013-04-23 01:58:00,49.6,38.3,30.09,SSE,153,3.0,4.0,65,0.00,,,0.00,Wunderground v.1.15,2013-04-23 05:58:00,
2013-04-23 02:01:00,49.6,38.3,30.09,SSE,154,4.0,5.0,65,0.00,,,0.00,Wunderground v.1.15,2013-04-23 06:01:00,
2013-04-23 02:02:00,49.6,38.3,30.09,SSE,167,5.0,6.0,65,0.00,,,0.00,Wunderground v.1.15,2013-04-23 06:02:00,
2013-04-23 02:03:00,49.6,38.3,30.09,SE,141,3.0,6.0,65,0.00,,,0.00,Wunderground v.1.15,2013-04-23 06:03:00,
2013-04-23 02:06:00,49.6,38.3,30.08,SSE,161,2.0,6.0,65,0.00,,,0.00,Wunderground v.1.15,2013-04-23 06:06:00,
2013-04-23 02:07:00,49.5,38.2,30.09,SSE,149,1.0,6.0,65,0.00,,,0.00,Wunderground v.1.15,2013-04-23 06:07:00,
2013-04-23 02:08:00,49.5,38.2,30.09,SSE,150,3.0,6.0,65,0.00,,,0.00,Wunderground v.1.15,2013-04-23 06:08:00,
2013-04-23 02:11:00,49.4,38.1,30.08,SSE,154,3.0,5.0,65,0.00,,,0.00,Wunderground v.1.15,2013-04-23 06:11:00,
2013-04-23 02:12:00,49.4,38.1,30.08,SSE,153,2.0,5.0,65,0.00,,,0.00,Wunderground v.1.15,2013-04-23 06:12:00,
2013-04-23 02:13:00,49.4,38.1,30.08,SSE,153,4.0,5.0,65,0.00,,,0.00,Wunderground v.1.15,2013-04-23 06:13:00,
2013-04-23 02:16:00,49.3,38.0,30.08,SSE,156,3.0,5.0,65,0.00,,,0.00,Wunderground v.1.15,2013-04-23 06:16:00,
2013-04-23 02:17:00,49.3,38.0,30.08,SSE,154,2.0,5.0,65,0.00,,,0.00,Wunderground v.1.15,2013-04-23 06:17:00,
2013-04-23 02:18:00,49.3,38.0,30.08,SE,146,3.0,5.0,65,0.00,,,0.00,Wunderground v.1.15,2013-04-23 06:18:00,
2013-04-23 02:19:00,49.3,38.0,30.08,SSE,148,3.0,5.0,65,0.00,,,0.00,Wunderground v.1.15,2013-04-23 06:19:00,
2013-04-23 02:22:00,49.2,38.3,30.08,SSE,148,2.0,5.0,66,0.00,,,0.00,Wunderground v.1.15,2013-04-23 06:22:00,
2013-04-23 02:24:00,49.2,38.3,30.08,SSE,156,5.0,5.0,66,0.00,,,0.00,Wunderground v.1.15,2013-04-23 06:24:00,
2013-04-23 02:27:00,49.1,38.2,30.08,SSE,155,4.0,5.0,66,0.00,,,0.00,Wunderground v.1.15,2013-04-23 06:27:00,
2013-04-23 02:28:00,49.1,38.2,30.08,SSE,152,5.0,5.0,66,0.00,,,0.00,Wunderground v.1.15,2013-04-23 06:28:00,
2013-04-23 02:29:00,49.0,38.1,30.08,SE,132,3.0,5.0,66,0.00,,,0.00,Wunderground v.1.15,2013-04-23 06:29:00,
2013-04-23 02:33:00,48.9,38.4,30.07,SSE,160,4.0,7.0,67,0.00,,,0.00,Wunderground v.1.15,2013-04-23 06:33:00,
2013-04-23 02:34:00,48.9,38.4,30.07,SSE,156,6.0,7.0,67,0.00,,,0.00,Wunderground v.1.15,2013-04-23 06:34:00,
2013-04-23 02:38:00,48.8,38.3,30.07,SSE,156,3.0,7.0,67,0.00,,,0.00,Wunderground v.1.15,2013-04-23 06:38:00,
2013-04-23 02:39:00,48.8,38.7,30.07,SE,141,6.0,7.0,68,0.00,,,0.00,Wunderground v.1.15,2013-04-23 06:39:00,
2013-04-23 02:40:00,48.7,38.6,30.07,SSE,156,4.0,4.0,68,0.00,,,0.00,Wunderground v.1.15,2013-04-23 06:40:00,
2013-04-23 02:43:00,48.7,38.6,30.07,SSE,165,7.0,7.0,68,0.00,,,0.00,Wunderground v.1.15,2013-04-23 06:43:00,
2013-04-23 02:44:00,48.7,38.6,30.07,SSE,156,4.0,7.0,68,0.00,,,0.00,Wunderground v.1.15,2013-04-23 06:44:00,
2013-04-23 02:45:00,48.7,38.6,30.07,SSE,159,4.0,7.0,68,0.00,,,0.00,Wunderground v.1.15,2013-04-23 06:45:00,
2013-04-23 02:48:00,48.6,38.5,30.07,SSE,167,5.0,7.0,68,0.00,,,0.00,Wunderground v.1.15,2013-04-23 06:48:00,
2013-04-23 02:49:00,48.6,38.5,30.07,South,170,5.0,7.0,68,0.00,,,0.00,Wunderground v.1.15,2013-04-23 06:49:00,
2013-04-23 02:50:00,48.6,38.9,30.07,SSE,160,3.0,7.0,69,0.00,,,0.00,Wunderground v.1.15,2013-04-23 06:50:00,
2013-04-23 02:51:00,48.6,38.9,30.07,SSE,159,4.0,9.0,69,0.00,,,0.00,Wunderground v.1.15,2013-04-23 06:51:00,
2013-04-23 02:53:00,48.5,38.8,30.07,SSE,168,3.0,9.0,69,0.00,,,0.00,Wunderground v.1.15,2013-04-23 06:53:00,
2013-04-23 02:54:00,48.5,38.8,30.07,SSE,157,4.0,9.0,69,0.00,,,0.00,Wunderground v.1.15,2013-04-23 06:54:00,
2013-04-23 02:55:00,48.5,38.8,30.07,SSE,163,5.0,9.0,69,0.00,,,0.00,Wunderground v.1.15,2013-04-23 06:55:00,
2013-04-23 02:56:00,48.5,38.8,30.07,SE,144,4.0,9.0,69,0.00,,,0.00,Wunderground v.1.15,2013-04-23 06:56:00,
2013-04-23 02:58:00,48.5,39.2,30.06,SSE,159,3.0,9.0,70,0.00,,,0.00,Wunderground v.1.15,2013-04-23 06:58:00,
2013-04-23 02:59:00,48.4,39.1,30.06,SSE,157,5.0,9.0,70,0.00,,,0.00,Wunderground v.1.15,2013-04-23 06:59:00,
2013-04-23 03:00:00,48.4,39.1,30.06,SSE,151,5.0,5.0,70,0.00,,,0.00,Wunderground v.1.15,2013-04-23 07:00:00,
2013-04-23 03:02:00,48.4,39.1,30.06,SSE,149,5.0,6.0,70,0.00,,,0.00,Wunderground v.1.15,2013-04-23 07:02:00,
2013-04-23 03:03:00,48.4,39.1,30.06,SSE,159,4.0,6.0,70,0.00,,,0.00,Wunderground v.1.15,2013-04-23 07:03:00,
2013-04-23 03:04:00,48.4,39.1,30.06,SSE,148,5.0,6.0,70,0.00,,,0.00,Wunderground v.1.15,2013-04-23 07:04:00,
2013-04-23 03:05:00,48.3,39.0,30.06,SSE,165,5.0,6.0,70,0.00,,,0.00,Wunderground v.1.15,2013-04-23 07:05:00,
2013-04-23 03:07:00,48.3,39.0,30.06,SSE,150,5.0,6.0,70,0.00,,,0.00,Wunderground v.1.15,2013-04-23 07:07:00,
2013-04-23 03:08:00,48.3,39.0,30.06,SSE,157,5.0,6.0,70,0.00,,,0.00,Wunderground v.1.15,2013-04-23 07:08:00,
2013-04-23 03:09:00,48.3,39.0,30.06,SE,145,4.0,6.0,70,0.00,,,0.00,Wunderground v.1.15,2013-04-23 07:09:00,
2013-04-23 03:10:00,48.2,38.9,30.06,SSE,153,5.0,6.0,70,0.00,,,0.00,Wunderground v.1.15,2013-04-23 07:10:00,
2013-04-23 03:12:00,48.2,38.9,30.06,SSE,159,4.0,9.0,70,0.00,,,0.00,Wunderground v.1.15,2013-04-23 07:12:00,
2013-04-23 03:13:00,48.2,38.9,30.06,SSE,158,4.0,9.0,70,0.00,,,0.00,Wunderground v.1.15,2013-04-23 07:13:00,
2013-04-23 03:15:00,48.1,39.1,30.05,SSE,158,4.0,9.0,71,0.00,,,0.00,Wunderground v.1.15,2013-04-23 07:15:00,
2013-04-23 03:16:00,48.1,39.1,30.06,SSE,149,3.0,9.0,71,0.00,,,0.00,Wunderground v.1.15,2013-04-23 07:16:00,
2013-04-23 03:18:00,48.1,39.1,30.05,SSE,157,5.0,9.0,71,0.00,,,0.00,Wunderground v.1.15,2013-04-23 07:18:00,
2013-04-23 03:19:00,48.1,39.1,30.05,ESE,123,5.0,9.0,71,0.00,,,0.00,Wunderground v.1.15,2013-04-23 07:19:00,
2013-04-23 03:20:00,48.0,39.0,30.05,SSE,155,6.0,6.0,71,0.00,,,0.00,Wunderground v.1.15,2013-04-23 07:20:00,
2013-04-23 03:21:00,48.0,39.0,30.05,SSE,155,3.0,6.0,71,0.00,,,0.00,Wunderground v.1.15,2013-04-23 07:21:00,
2013-04-23 03:23:00,48.0,39.0,30.05,SE,145,6.0,6.0,71,0.00,,,0.00,Wunderground v.1.15,2013-04-23 07:23:00,
2013-04-23 03:24:00,47.9,38.9,30.05,SSE,152,2.0,6.0,71,0.00,,,0.00,Wunderground v.1.15,2013-04-23 07:24:00,
2013-04-23 03:25:00,48.0,39.0,30.05,SSE,155,5.0,7.0,71,0.00,,,0.00,Wunderground v.1.15,2013-04-23 07:25:00,
2013-04-23 03:26:00,47.9,38.9,30.05,SSE,159,6.0,7.0,71,0.00,,,0.00,Wunderground v.1.15,2013-04-23 07:26:00,
2013-04-23 03:29:00,47.9,38.9,30.05,SSE,160,5.0,7.0,71,0.00,,,0.00,Wunderground v.1.15,2013-04-23 07:29:00,
2013-04-23 03:30:00,47.8,39.2,30.05,SSE,159,5.0,5.0,72,0.00,,,0.00,Wunderground v.1.15,2013-04-23 07:30:00,
2013-04-23 03:31:00,47.8,39.2,30.05,SSE,149,7.0,7.0,72,0.00,,,0.00,Wunderground v.1.15,2013-04-23 07:31:00,
2013-04-23 03:34:00,47.8,39.2,30.05,SSE,166,4.0,7.0,72,0.00,,,0.00,Wunderground v.1.15,2013-04-23 07:34:00,
2013-04-23 03:35:00,47.8,39.2,30.05,SSE,149,5.0,7.0,72,0.00,,,0.00,Wunderground v.1.15,2013-04-23 07:35:00,
2013-04-23 03:37:00,47.7,39.1,30.05,South,183,5.0,8.0,72,0.00,,,0.00,Wunderground v.1.15,2013-04-23 07:37:00,
2013-04-23 03:39:00,47.7,39.1,30.04,SSE,159,5.0,8.0,72,0.00,,,0.00,Wunderground v.1.15,2013-04-23 07:39:00,
2013-04-23 03:40:00,47.7,39.1,30.04,SSE,153,3.0,6.0,72,0.00,,,0.00,Wunderground v.1.15,2013-04-23 07:40:00,
2013-04-23 03:43:00,47.7,39.1,30.04,SSE,150,4.0,9.0,72,0.00,,,0.00,Wunderground v.1.15,2013-04-23 07:43:00,
2013-04-23 03:44:00,47.7,39.1,30.04,SSE,151,4.0,9.0,72,0.00,,,0.00,Wunderground v.1.15,2013-04-23 07:44:00,
2013-04-23 03:46:00,47.6,39.0,30.04,SSE,151,3.0,9.0,72,0.00,,,0.00,Wunderground v.1.15,2013-04-23 07:46:00,
2013-04-23 03:49:00,47.7,39.1,30.04,SE,142,4.0,9.0,72,0.00,,,0.00,Wunderground v.1.15,2013-04-23 07:49:00,
2013-04-23 03:50:00,47.7,39.1,30.04,SSE,159,5.0,9.0,72,0.00,,,0.00,Wunderground v.1.15,2013-04-23 07:50:00,
2013-04-23 03:51:00,47.7,39.5,30.04,SSE,159,6.0,6.0,73,0.00,,,0.00,Wunderground v.1.15,2013-04-23 07:51:00,
2013-04-23 03:54:00,47.6,39.4,30.04,SE,142,4.0,7.0,73,0.00,,,0.00,Wunderground v.1.15,2013-04-23 07:54:00,
2013-04-23 03:55:00,47.6,39.4,30.04,SSE,159,4.0,7.0,73,0.00,,,0.00,Wunderground v.1.15,2013-04-23 07:55:00,
2013-04-23 03:56:00,47.6,39.4,30.03,SSE,161,6.0,7.0,73,0.00,,,0.00,Wunderground v.1.15,2013-04-23 07:56:00,
2013-04-23 03:57:00,47.6,39.4,30.03,SSE,152,5.0,7.0,73,0.00,,,0.00,Wunderground v.1.15,2013-04-23 07:57:00,
2013-04-23 03:59:00,47.6,39.4,30.03,SSE,157,6.0,7.0,73,0.00,,,0.00,Wunderground v.1.15,2013-04-23 07:59:00,
2013-04-23 04:00:00,47.6,39.4,30.03,SSE,160,4.0,7.0,73,0.00,,,0.00,Wunderground v.1.15,2013-04-23 08:00:00,
2013-04-23 04:01:00,47.6,39.4,30.03,SSE,152,5.0,7.0,73,0.00,,,0.00,Wunderground v.1.15,2013-04-23 08:01:00,
2013-04-23 04:02:00,47.6,39.4,30.03,SSE,158,6.0,7.0,73,0.00,,,0.00,Wunderground v.1.15,2013-04-23 08:02:00,
2013-04-23 04:05:00,47.6,39.4,30.03,SSE,154,6.0,7.0,73,0.00,,,0.00,Wunderground v.1.15,2013-04-23 08:05:00,
2013-04-23 04:06:00,47.6,39.4,30.02,SSE,159,7.0,7.0,73,0.00,,,0.00,Wunderground v.1.15,2013-04-23 08:06:00,
2013-04-23 04:07:00,47.6,39.4,30.02,SSE,164,4.0,7.0,73,0.00,,,0.00,Wunderground v.1.15,2013-04-23 08:07:00,
2013-04-23 04:10:00,47.6,39.4,30.02,SSE,148,7.0,7.0,73,0.00,,,0.00,Wunderground v.1.15,2013-04-23 08:10:00,
2013-04-23 04:12:00,47.6,39.7,30.02,SSE,152,6.0,9.0,74,0.00,,,0.00,Wunderground v.1.15,2013-04-23 08:12:00,
2013-04-23 04:13:00,47.6,39.4,30.02,SSE,150,5.0,9.0,73,0.00,,,0.00,Wunderground v.1.15,2013-04-23 08:13:00,
2013-04-23 04:15:00,47.7,39.8,30.02,SE,135,5.0,9.0,74,0.00,,,0.00,Wunderground v.1.15,2013-04-23 08:15:00,
2013-04-23 04:16:00,47.6,39.7,30.02,SSE,164,5.0,9.0,74,0.00,,,0.00,Wunderground v.1.15,2013-04-23 08:16:00,
2013-04-23 04:17:00,47.6,39.4,30.02,SSE,159,6.0,9.0,73,0.00,,,0.00,Wunderground v.1.15,2013-04-23 08:17:00,
2013-04-23 04:18:00,47.7,39.5,30.02,SSE,159,8.0,9.0,73,0.00,,,0.00,Wunderground v.1.15,2013-04-23 08:18:00,
2013-04-23 04:21:00,47.6,39.7,30.02,SSE,157,6.0,6.0,74,0.00,,,0.00,Wunderground v.1.15,2013-04-23 08:21:00,
2013-04-23 04:22:00,47.6,39.7,30.02,SSE,153,5.0,7.0,74,0.00,,,0.00,Wunderground v.1.15,2013-04-23 08:22:00,
2013-04-23 04:23:00,47.7,39.8,30.02,SSE,153,6.0,7.0,74,0.00,,,0.00,Wunderground v.1.15,2013-04-23 08:23:00,
2013-04-23 04:26:00,47.7,39.5,30.02,SSE,160,7.0,8.0,73,0.00,,,0.00,Wunderground v.1.15,2013-04-23 08:26:00,
2013-04-23 04:27:00,47.7,39.8,30.01,South,172,5.0,8.0,74,0.00,,,0.00,Wunderground v.1.15,2013-04-23 08:27:00,
2013-04-23 04:28:00,47.7,39.8,30.01,SSE,161,5.0,8.0,74,0.00,,,0.00,Wunderground v.1.15,2013-04-23 08:28:00,
2013-04-23 04:29:00,47.7,39.5,30.01,SSE,150,6.0,8.0,73,0.00,,,0.00,Wunderground v.1.15,2013-04-23 08:29:00,
2013-04-23 04:31:00,47.7,39.5,30.01,SE,144,4.0,9.0,73,0.00,,,0.00,Wunderground v.1.15,2013-04-23 08:31:00,
2013-04-23 04:33:00,47.7,39.5,30.01,SSE,168,5.0,9.0,73,0.00,,,0.00,Wunderground v.1.15,2013-04-23 08:33:00,
2013-04-23 04:34:00,47.7,39.5,30.01,SSE,153,3.0,9.0,73,0.00,,,0.00,Wunderground v.1.15,2013-04-23 08:34:00,
2013-04-23 04:36:00,47.7,39.5,30.01,SSE,159,6.0,9.0,73,0.00,,,0.00,Wunderground v.1.15,2013-04-23 08:36:00,
2013-04-23 04:37:00,47.7,39.5,30.01,SSE,153,9.0,9.0,73,0.00,,,0.00,Wunderground v.1.15,2013-04-23 08:37:00,
2013-04-23 04:38:00,47.6,39.4,30.01,SSE,161,6.0,9.0,73,0.00,,,0.00,Wunderground v.1.15,2013-04-23 08:38:00,
2013-04-23 04:39:00,47.7,39.5,30.01,SSE,153,5.0,9.0,73,0.00,,,0.00,Wunderground v.1.15,2013-04-23 08:39:00,
2013-04-23 04:41:00,47.6,39.4,30.01,SSE,159,7.0,9.0,73,0.00,,,0.00,Wunderground v.1.15,2013-04-23 08:41:00,
2013-04-23 04:42:00,47.6,39.4,30.01,SSE,153,6.0,9.0,73,0.00,,,0.00,Wunderground v.1.15,2013-04-23 08:42:00,
2013-04-23 04:43:00,47.6,39.4,30.01,SSE,148,6.0,9.0,73,0.00,,,0.00,Wunderground v.1.15,2013-04-23 08:43:00,
2013-04-23 04:44:00,47.6,39.4,30.01,SSE,149,5.0,12.0,73,0.00,,,0.00,Wunderground v.1.15,2013-04-23 08:44:00,
2013-04-23 04:47:00,47.6,39.4,30.00,SSE,153,5.0,12.0,73,0.00,,,0.00,Wunderground v.1.15,2013-04-23 08:47:00,
2013-04-23 04:48:00,47.6,39.4,30.00,SSE,159,5.0,12.0,73,0.00,,,0.00,Wunderground v.1.15,2013-04-23 08:48:00,
2013-04-23 04:49:00,47.6,39.4,30.00,SE,142,3.0,12.0,73,0.00,,,0.00,Wunderground v.1.15,2013-04-23 08:49:00,
2013-04-23 04:52:00,47.6,39.4,30.00,SSE,166,6.0,7.0,73,0.00,,,0.00,Wunderground v.1.15,2013-04-23 08:52:00,
2013-04-23 04:53:00,47.5,39.3,30.00,SSE,157,2.0,7.0,73,0.00,,,0.00,Wunderground v.1.15,2013-04-23 08:53:00,
2013-04-23 04:54:00,47.6,39.7,30.00,SSE,158,7.0,7.0,74,0.00,,,0.00,Wunderground v.1.15,2013-04-23 08:54:00,
2013-04-23 04:58:00,47.5,39.6,30.00,SSE,160,6.0,9.0,74,0.00,,,0.00,Wunderground v.1.15,2013-04-23 08:58:00,
2013-04-23 04:59:00,47.5,39.6,30.00,SSE,152,6.0,9.0,74,0.00,,,0.00,Wunderground v.1.15,2013-04-23 08:59:00,
2013-04-23 05:04:00,47.4,39.5,30.00,SSE,157,4.0,9.0,74,0.00,,,0.00,Wunderground v.1.15,2013-04-23 09:04:00,
2013-04-23 05:05:00,47.4,39.5,30.00,SE,140,6.0,9.0,74,0.00,,,0.00,Wunderground v.1.15,2013-04-23 09:05:00,
2013-04-23 05:09:00,47.3,39.4,30.00,SSE,152,6.0,9.0,74,0.00,,,0.00,Wunderground v.1.15,2013-04-23 09:09:00,
2013-04-23 05:10:00,47.3,39.4,30.00,SSE,157,5.0,9.0,74,0.00,,,0.00,Wunderground v.1.15,2013-04-23 09:10:00,
2013-04-23 05:14:00,47.3,39.4,30.00,SSE,156,5.0,7.0,74,0.00,,,0.00,Wunderground v.1.15,2013-04-23 09:14:00,
2013-04-23 05:15:00,47.3,39.4,30.00,SSE,149,5.0,7.0,74,0.00,,,0.00,Wunderground v.1.15,2013-04-23 09:15:00,
2013-04-23 05:16:00,47.3,39.4,30.00,SSE,160,5.0,7.0,74,0.00,,,0.00,Wunderground v.1.15,2013-04-23 09:16:00,
2013-04-23 05:19:00,47.3,39.8,30.00,SSE,163,5.0,10.0,75,0.00,,,0.00,Wunderground v.1.15,2013-04-23 09:19:00,
2013-04-23 05:20:00,47.3,39.8,30.00,SE,134,4.0,6.0,75,0.00,,,0.00,Wunderground v.1.15,2013-04-23 09:20:00,
2013-04-23 05:21:00,47.3,39.8,30.00,South,171,4.0,6.0,75,0.00,,,0.00,Wunderground v.1.15,2013-04-23 09:21:00,
2013-04-23 05:24:00,47.4,39.9,30.00,SSE,156,5.0,7.0,75,0.00,,,0.00,Wunderground v.1.15,2013-04-23 09:24:00,
2013-04-23 05:25:00,47.4,39.9,30.00,SSE,149,5.0,7.0,75,0.00,,,0.00,Wunderground v.1.15,2013-04-23 09:25:00,
2013-04-23 05:26:00,47.4,39.9,30.00,SSE,152,5.0,7.0,75,0.00,,,0.00,Wunderground v.1.15,2013-04-23 09:26:00,
2013-04-23 05:30:00,47.6,40.1,30.00,SSE,147,4.0,5.0,75,0.00,,,0.00,Wunderground v.1.15,2013-04-23 09:30:00,
2013-04-23 05:31:00,47.6,40.1,30.00,SSE,153,5.0,6.0,75,0.00,,,0.00,Wunderground v.1.15,2013-04-23 09:31:00,
2013-04-23 05:35:00,47.7,40.2,30.00,SSE,167,6.0,7.0,75,0.00,,,0.00,Wunderground v.1.15,2013-04-23 09:35:00,
2013-04-23 05:36:00,47.8,40.3,30.00,SSE,155,6.0,9.0,75,0.00,,,0.00,Wunderground v.1.15,2013-04-23 09:36:00,
2013-04-23 05:37:00,47.8,40.3,30.00,SSE,158,6.0,9.0,75,0.00,,,0.00,Wunderground v.1.15,2013-04-23 09:37:00,
2013-04-23 05:40:00,47.9,40.4,30.00,SSE,155,6.0,6.0,75,0.00,,,0.00,Wunderground v.1.15,2013-04-23 09:40:00,
2013-04-23 05:41:00,48.0,40.5,30.00,SSE,157,5.0,7.0,75,0.00,,,0.00,Wunderground v.1.15,2013-04-23 09:41:00,
2013-04-23 05:42:00,48.0,40.5,30.00,SSE,161,6.0,7.0,75,0.00,,,0.00,Wunderground v.1.15,2013-04-23 09:42:00,
2013-04-23 05:45:00,48.1,40.5,30.00,SSE,158,4.0,9.0,75,0.00,,,0.00,Wunderground v.1.15,2013-04-23 09:45:00,
2013-04-23 05:46:00,48.1,40.5,30.00,SSE,168,6.0,9.0,75,0.00,,,0.00,Wunderground v.1.15,2013-04-23 09:46:00,
2013-04-23 05:47:00,48.1,40.5,30.00,SSE,165,5.0,9.0,75,0.00,,,0.00,Wunderground v.1.15,2013-04-23 09:47:00,
2013-04-23 05:50:00,48.3,40.7,30.00,SSE,149,5.0,6.0,75,0.00,,,0.00,Wunderground v.1.15,2013-04-23 09:50:00,
2013-04-23 05:52:00,48.3,40.4,30.00,SSE,151,6.0,7.0,74,0.00,,,0.00,Wunderground v.1.15,2013-04-23 09:52:00,
2013-04-23 05:53:00,48.4,40.5,30.00,SSE,150,9.0,9.0,74,0.00,,,0.00,Wunderground v.1.15,2013-04-23 09:53:00,
2013-04-23 05:55:00,48.5,40.6,30.00,SSE,155,5.0,9.0,74,0.00,,,0.00,Wunderground v.1.15,2013-04-23 09:55:00,
2013-04-23 05:57:00,48.5,40.6,30.01,SSE,157,3.0,9.0,74,0.00,,,0.00,Wunderground v.1.15,2013-04-23 09:57:00,
2013-04-23 05:58:00,48.5,40.6,30.01,SSE,164,4.0,9.0,74,0.00,,,0.00,Wunderground v.1.15,2013-04-23 09:58:00,
2013-04-23 06:00:00,48.6,40.7,30.02,SE,142,1.0,5.0,74,0.00,,,0.00,Wunderground v.1.15,2013-04-23 10:00:00,
2013-04-23 06:02:00,48.6,40.7,30.02,SSE,166,4.0,7.0,74,0.00,,,0.00,Wunderground v.1.15,2013-04-23 10:02:00,
2013-04-23 06:03:00,48.6,40.7,30.02,South,171,4.0,7.0,74,0.00,,,0.00,Wunderground v.1.15,2013-04-23 10:03:00,
2013-04-23 06:06:00,48.7,40.8,30.02,SSE,166,4.0,7.0,74,0.00,,,0.00,Wunderground v.1.15,2013-04-23 10:06:00,
2013-04-23 06:08:00,48.7,40.8,30.02,SSW,192,5.0,9.0,74,0.00,,,0.00,Wunderground v.1.15,2013-04-23 10:08:00,
2013-04-23 06:11:00,48.9,40.6,30.02,SSE,161,3.0,4.0,73,0.00,,,0.00,Wunderground v.1.15,2013-04-23 10:11:00,
2013-04-23 06:13:00,49.1,40.8,30.01,SSE,165,3.0,6.0,73,0.00,,,0.00,Wunderground v.1.15,2013-04-23 10:13:00,
2013-04-23 06:16:00,49.3,41.0,30.01,South,173,2.0,7.0,73,0.00,,,0.00,Wunderground v.1.15,2013-04-23 10:16:00,
2013-04-23 06:18:00,49.5,40.8,30.01,SSE,162,4.0,7.0,72,0.00,,,0.00,Wunderground v.1.15,2013-04-23 10:18:00,
2013-04-23 06:19:00,49.5,40.8,30.01,SSE,165,4.0,7.0,72,0.00,,,0.00,Wunderground v.1.15,2013-04-23 10:19:00,
2013-04-23 06:21:00,49.7,41.0,30.00,SSE,157,3.0,5.0,72,0.00,,,0.00,Wunderground v.1.15,2013-04-23 10:21:00,
2013-04-23 06:23:00,49.9,41.2,30.00,SSE,152,9.0,9.0,72,0.00,,,0.00,Wunderground v.1.15,2013-04-23 10:23:00,
2013-04-23 06:24:00,49.9,41.2,30.00,SSE,158,3.0,9.0,72,0.00,,,0.00,Wunderground v.1.15,2013-04-23 10:24:00,
2013-04-23 06:26:00,50.0,41.0,30.00,SSE,161,3.0,9.0,71,0.00,,,0.00,Wunderground v.1.15,2013-04-23 10:26:00,
2013-04-23 06:28:00,50.3,41.3,30.00,SSE,158,5.0,9.0,71,0.00,,,0.00,Wunderground v.1.15,2013-04-23 10:28:00,
2013-04-23 06:29:00,50.3,41.3,30.00,SSE,152,4.0,9.0,71,0.00,,,0.00,Wunderground v.1.15,2013-04-23 10:29:00,
2013-04-23 06:31:00,50.4,41.3,30.00,SE,130,3.0,6.0,71,0.00,,,0.00,Wunderground v.1.15,2013-04-23 10:31:00,
2013-04-23 06:34:00,50.5,41.4,30.00,South,171,3.0,9.0,71,0.00,,,0.00,Wunderground v.1.15,2013-04-23 10:34:00,
2013-04-23 06:36:00,50.5,41.4,29.99,SSE,159,3.0,9.0,71,0.00,,,0.00,Wunderground v.1.15,2013-04-23 10:36:00,
2013-04-23 06:39:00,50.5,41.4,29.99,South,172,4.0,9.0,71,0.00,,,0.00,Wunderground v.1.15,2013-04-23 10:39:00,
2013-04-23 06:41:00,50.6,41.5,29.99,SSE,166,4.0,6.0,71,0.00,,,0.00,Wunderground v.1.15,2013-04-23 10:41:00,
2013-04-23 06:44:00,50.5,41.4,29.99,South,169,5.0,9.0,71,0.00,,,0.00,Wunderground v.1.15,2013-04-23 10:44:00,
2013-04-23 06:45:00,50.5,41.4,29.99,South,190,3.0,9.0,71,0.00,,,0.00,Wunderground v.1.15,2013-04-23 10:45:00,
2013-04-23 06:46:00,50.6,41.5,29.99,SE,146,5.0,9.0,71,0.00,,,0.00,Wunderground v.1.15,2013-04-23 10:46:00,
2013-04-23 06:49:00,50.5,41.4,30.00,SSE,158,3.0,9.0,71,0.00,,,0.00,Wunderground v.1.15,2013-04-23 10:49:00,
2013-04-23 06:50:00,50.5,41.4,30.00,SSE,158,2.0,4.0,71,0.00,,,0.00,Wunderground v.1.15,2013-04-23 10:50:00,
2013-04-23 06:51:00,50.5,41.4,30.00,SSW,203,3.0,5.0,71,0.00,,,0.00,Wunderground v.1.15,2013-04-23 10:51:00,
2013-04-23 06:54:00,50.5,41.4,30.00,SSE,158,6.0,9.0,71,0.00,,,0.00,Wunderground v.1.15,2013-04-23 10:54:00,
2013-04-23 06:55:00,50.5,41.4,30.00,SSE,164,5.0,9.0,71,0.00,,,0.00,Wunderground v.1.15,2013-04-23 10:55:00,
2013-04-23 06:56:00,50.5,41.4,30.00,SSE,163,3.0,9.0,71,0.00,,,0.00,Wunderground v.1.15,2013-04-23 10:56:00,
2013-04-23 06:57:00,50.5,41.4,30.01,South,187,4.0,9.0,71,0.00,,,0.00,Wunderground v.1.15,2013-04-23 10:57:00,
2013-04-23 07:00:00,50.6,41.5,30.01,SSE,159,7.0,7.0,71,0.00,,,0.00,Wunderground v.1.15,2013-04-23 11:00:00,
2013-04-23 07:01:00,50.6,41.5,30.01,SE,142,3.0,7.0,71,0.00,,,0.00,Wunderground v.1.15,2013-04-23 11:01:00,
2013-04-23 07:03:00,50.7,41.6,30.01,SSE,159,4.0,7.0,71,0.00,,,0.00,Wunderground v.1.15,2013-04-23 11:03:00,
2013-04-23 07:05:00,50.7,41.6,30.00,South,170,7.0,7.0,71,0.00,,,0.00,Wunderground v.1.15,2013-04-23 11:05:00,
2013-04-23 07:06:00,50.7,41.6,30.00,SSE,165,3.0,7.0,71,0.00,,,0.00,Wunderground v.1.15,2013-04-23 11:06:00,
2013-04-23 07:08:00,50.7,41.6,29.99,SSE,165,4.0,7.0,71,0.00,,,0.00,Wunderground v.1.15,2013-04-23 11:08:00,
2013-04-23 07:10:00,50.7,41.6,29.99,SSE,165,4.0,10.0,71,0.00,,,0.00,Wunderground v.1.15,2013-04-23 11:10:00,
2013-04-23 07:11:00,50.7,41.6,30.00,SSE,155,5.0,10.0,71,0.00,,,0.00,Wunderground v.1.15,2013-04-23 11:11:00,
2013-04-23 07:12:00,50.7,41.6,30.00,SSE,153,4.0,10.0,71,0.00,,,0.00,Wunderground v.1.15,2013-04-23 11:12:00,
2013-04-23 07:13:00,50.6,41.5,29.99,SSE,161,5.0,10.0,71,0.00,,,0.00,Wunderground v.1.15,2013-04-23 11:13:00,
2013-04-23 07:16:00,50.6,41.5,29.99,SSE,161,6.0,10.0,71,0.00,,,0.00,Wunderground v.1.15,2013-04-23 11:16:00,
2013-04-23 07:17:00,50.5,41.8,29.99,South,169,4.0,10.0,72,0.00,,,0.00,Wunderground v.1.15,2013-04-23 11:17:00,
2013-04-23 07:18:00,50.5,41.8,29.99,SSE,164,5.0,10.0,72,0.00,,,0.00,Wunderground v.1.15,2013-04-23 11:18:00,
2013-04-23 07:21:00,50.4,41.7,30.00,SSE,166,4.0,6.0,72,0.00,,,0.00,Wunderground v.1.15,2013-04-23 11:21:00,
2013-04-23 07:22:00,50.4,41.7,30.00,South,171,6.0,6.0,72,0.00,,,0.00,Wunderground v.1.15,2013-04-23 11:22:00,
2013-04-23 07:23:00,50.3,41.6,30.00,South,169,4.0,6.0,72,0.00,,,0.00,Wunderground v.1.15,2013-04-23 11:23:00,
2013-04-23 07:26:00,50.3,41.6,30.00,SSE,163,3.0,6.0,72,0.00,,,0.00,Wunderground v.1.15,2013-04-23 11:26:00,
2013-04-23 07:27:00,50.3,41.6,30.01,SSE,151,5.0,10.0,72,0.00,,,0.00,Wunderground v.1.15,2013-04-23 11:27:00,
2013-04-23 07:28:00,50.3,41.6,30.01,SSE,151,6.0,10.0,72,0.00,,,0.00,Wunderground v.1.15,2013-04-23 11:28:00,
2013-04-23 07:31:00,50.3,41.6,30.01,SSE,164,3.0,6.0,72,0.00,,,0.00,Wunderground v.1.15,2013-04-23 11:31:00,
2013-04-23 07:32:00,50.3,42.0,30.01,SSE,163,5.0,6.0,73,0.00,,,0.00,Wunderground v.1.15,2013-04-23 11:32:00,
2013-04-23 07:33:00,50.3,42.0,30.01,SSE,158,5.0,6.0,73,0.00,,,0.00,Wunderground v.1.15,2013-04-23 11:33:00,
2013-04-23 07:36:00,50.4,42.1,30.01,South,175,5.0,7.0,73,0.00,,,0.00,Wunderground v.1.15,2013-04-23 11:36:00,
2013-04-23 07:37:00,50.5,42.2,30.01,SSE,163,4.0,7.0,73,0.00,,,0.00,Wunderground v.1.15,2013-04-23 11:37:00,
2013-04-23 07:38:00,50.5,42.2,30.01,SSE,163,3.0,7.0,73,0.00,,,0.00,Wunderground v.1.15,2013-04-23 11:38:00,
2013-04-23 07:39:00,50.5,42.2,30.01,South,169,2.0,7.0,73,0.00,,,0.00,Wunderground v.1.15,2013-04-23 11:39:00,
2013-04-23 07:41:00,50.6,42.3,30.01,South,176,4.0,6.0,73,0.00,,,0.00,Wunderground v.1.15,2013-04-23 11:41:00,
2013-04-23 07:43:00,50.7,42.4,30.01,SSE,155,5.0,6.0,73,0.00,,,0.00,Wunderground v.1.15,2013-04-23 11:43:00,
2013-04-23 07:44:00,50.7,42.4,30.01,SSE,163,4.0,7.0,73,0.00,,,0.00,Wunderground v.1.15,2013-04-23 11:44:00,
2013-04-23 07:46:00,50.8,42.8,30.01,SSE,165,1.0,7.0,74,0.00,,,0.00,Wunderground v.1.15,2013-04-23 11:46:00,
2013-04-23 07:48:00,50.9,42.9,30.01,SSE,165,4.0,7.0,74,0.00,,,0.00,Wunderground v.1.15,2013-04-23 11:48:00,
2013-04-23 07:49:00,51.0,43.4,30.01,SSE,161,6.0,7.0,75,0.00,,,0.00,Wunderground v.1.15,2013-04-23 11:49:00,
2013-04-23 07:51:00,51.0,43.7,30.01,SSE,159,4.0,6.0,76,0.00,,,0.00,Wunderground v.1.15,2013-04-23 11:51:00,
2013-04-23 07:53:00,51.0,43.7,30.01,SSE,162,5.0,6.0,76,0.00,,,0.00,Wunderground v.1.15,2013-04-23 11:53:00,
2013-04-23 07:54:00,51.1,44.5,30.01,SSE,155,4.0,6.0,78,0.00,,,0.00,Wunderground v.1.15,2013-04-23 11:54:00,
2013-04-23 07:55:00,51.1,44.5,30.01,SSE,164,4.0,6.0,78,0.00,,,0.00,Wunderground v.1.15,2013-04-23 11:55:00,
2013-04-23 07:57:00,51.0,44.7,30.00,SSE,165,3.0,6.0,79,0.00,,,0.00,Wunderground v.1.15,2013-04-23 11:57:00,
2013-04-23 07:58:00,51.0,44.7,30.00,SSE,160,3.0,6.0,79,0.00,,,0.00,Wunderground v.1.15,2013-04-23 11:58:00,
2013-04-23 08:00:00,50.9,44.6,30.00,SSE,162,4.0,5.0,79,0.00,,,0.00,Wunderground v.1.15,2013-04-23 12:00:00,
2013-04-23 08:01:00,50.9,44.9,30.00,SSE,161,3.0,5.0,80,0.00,,,0.00,Wunderground v.1.15,2013-04-23 12:01:00,
2013-04-23 08:03:00,50.8,44.9,30.00,South,185,4.0,5.0,80,0.00,,,0.00,Wunderground v.1.15,2013-04-23 12:03:00,
2013-04-23 08:05:00,50.6,44.7,30.00,SSE,156,3.0,5.0,80,0.00,,,0.00,Wunderground v.1.15,2013-04-23 12:05:00,
2013-04-23 08:06:00,50.6,45.0,30.00,SSE,157,3.0,5.0,81,0.00,,,0.00,Wunderground v.1.15,2013-04-23 12:06:00,
2013-04-23 08:08:00,50.5,44.9,30.00,SSE,159,2.0,5.0,81,0.00,,,0.00,Wunderground v.1.15,2013-04-23 12:08:00,
2013-04-23 08:11:00,50.5,45.2,30.00,SSE,159,4.0,5.0,82,0.00,,,0.00,Wunderground v.1.15,2013-04-23 12:11:00,
2013-04-23 08:12:00,50.5,45.2,30.00,SSE,159,4.0,5.0,82,0.00,,,0.00,Wunderground v.1.15,2013-04-23 12:12:00,
2013-04-23 08:13:00,50.4,45.1,30.00,SSE,161,3.0,5.0,82,0.00,,,0.00,Wunderground v.1.15,2013-04-23 12:13:00,
2013-04-23 08:16:00,50.3,45.0,30.00,SSE,163,2.0,5.0,82,0.00,,,0.00,Wunderground v.1.15,2013-04-23 12:16:00,
2013-04-23 08:17:00,50.3,45.0,30.00,SSE,159,3.0,5.0,82,0.00,,,0.00,Wunderground v.1.15,2013-04-23 12:17:00,
2013-04-23 08:18:00,50.3,45.0,30.00,SSE,161,3.0,5.0,82,0.00,,,0.00,Wunderground v.1.15,2013-04-23 12:18:00,
2013-04-23 08:21:00,50.3,45.3,30.00,SSE,160,2.0,5.0,83,0.00,,,0.00,Wunderground v.1.15,2013-04-23 12:21:00,
2013-04-23 08:22:00,50.3,45.3,30.00,SSE,159,4.0,5.0,83,0.00,,,0.00,Wunderground v.1.15,2013-04-23 12:22:00,
2013-04-23 08:23:00,50.3,45.3,30.00,SSE,160,2.0,5.0,83,0.00,,,0.00,Wunderground v.1.15,2013-04-23 12:23:00,
2013-04-23 08:24:00,50.3,45.3,30.00,SSE,161,3.0,5.0,83,0.00,,,0.00,Wunderground v.1.15,2013-04-23 12:24:00,
2013-04-23 08:27:00,50.3,45.3,30.00,SSE,155,2.0,5.0,83,0.00,,,0.00,Wunderground v.1.15,2013-04-23 12:27:00,
2013-04-23 08:29:00,50.3,45.3,30.00,SSE,158,1.0,5.0,83,0.00,,,0.00,Wunderground v.1.15,2013-04-23 12:29:00,
2013-04-23 08:30:00,50.3,45.3,30.00,SSE,163,3.0,3.0,83,0.00,,,0.00,Wunderground v.1.15,2013-04-23 12:30:00,
2013-04-23 08:33:00,50.3,45.3,30.00,SSE,159,3.0,5.0,83,0.00,,,0.00,Wunderground v.1.15,2013-04-23 12:33:00,
2013-04-23 08:34:00,50.3,45.3,30.00,SSE,162,4.0,5.0,83,0.00,,,0.00,Wunderground v.1.15,2013-04-23 12:34:00,
2013-04-23 08:35:00,50.4,45.4,30.00,SSE,166,4.0,5.0,83,0.00,,,0.00,Wunderground v.1.15,2013-04-23 12:35:00,
2013-04-23 08:38:00,50.4,45.4,30.00,SSE,157,3.0,5.0,83,0.00,,,0.00,Wunderground v.1.15,2013-04-23 12:38:00,
2013-04-23 08:39:00,50.4,45.4,29.99,SSE,163,3.0,5.0,83,0.00,,,0.00,Wunderground v.1.15,2013-04-23 12:39:00,
2013-04-23 08:40:00,50.4,45.4,29.99,SSE,161,3.0,4.0,83,0.00,,,0.00,Wunderground v.1.15,2013-04-23 12:40:00,
2013-04-23 08:43:00,50.4,45.1,29.99,SSE,161,3.0,5.0,82,0.00,,,0.00,Wunderground v.1.15,2013-04-23 12:43:00,
2013-04-23 08:44:00,50.4,45.1,29.99,SSE,161,3.0,5.0,82,0.00,,,0.00,Wunderground v.1.15,2013-04-23 12:44:00,
2013-04-23 08:45:00,50.4,45.1,29.99,SSE,165,3.0,5.0,82,0.00,,,0.00,Wunderground v.1.15,2013-04-23 12:45:00,
2013-04-23 08:46:00,50.4,45.1,29.99,SSE,164,4.0,5.0,82,0.00,,,0.00,Wunderground v.1.15,2013-04-23 12:46:00,
2013-04-23 08:48:00,50.4,45.1,29.99,SSE,163,4.0,6.0,82,0.00,,,0.00,Wunderground v.1.15,2013-04-23 12:48:00,
2013-04-23 08:49:00,50.4,45.1,29.99,SSE,162,4.0,6.0,82,0.00,,,0.00,Wunderground v.1.15,2013-04-23 12:49:00,
2013-04-23 08:50:00,50.5,45.2,29.99,SSE,159,3.0,4.0,82,0.00,,,0.00,Wunderground v.1.15,2013-04-23 12:50:00,
2013-04-23 08:51:00,50.5,45.2,29.99,SSE,160,4.0,4.0,82,0.00,,,0.00,Wunderground v.1.15,2013-04-23 12:51:00,
2013-04-23 08:53:00,50.6,45.3,29.99,SSE,159,2.0,4.0,82,0.00,,,0.00,Wunderground v.1.15,2013-04-23 12:53:00,
2013-04-23 08:54:00,50.6,45.6,29.99,SSE,163,3.0,4.0,83,0.00,,,0.00,Wunderground v.1.15,2013-04-23 12:54:00,
2013-04-23 08:55:00,50.6,45.3,29.99,SSE,161,3.0,4.0,82,0.00,,,0.00,Wunderground v.1.15,2013-04-23 12:55:00,
2013-04-23 08:56:00,50.7,45.4,29.99,SSE,161,2.0,4.0,82,0.00,,,0.00,Wunderground v.1.15,2013-04-23 12:56:00,
2013-04-23 08:59:00,50.8,45.5,29.99,SSE,161,2.0,4.0,82,0.00,,,0.00,Wunderground v.1.15,2013-04-23 12:59:00,
2013-04-23 09:01:00,50.9,45.6,29.99,SSE,166,3.0,4.0,82,0.00,,,0.00,Wunderground v.1.15,2013-04-23 13:01:00,
2013-04-23 09:04:00,51.1,45.8,29.99,SSE,161,3.0,4.0,82,0.00,,,0.00,Wunderground v.1.15,2013-04-23 13:04:00,
2013-04-23 09:06:00,51.3,46.0,29.99,SSE,163,4.0,4.0,82,0.00,,,0.00,Wunderground v.1.15,2013-04-23 13:06:00,
2013-04-23 09:07:00,51.3,46.3,29.99,SSE,162,2.0,4.0,83,0.00,,,0.00,Wunderground v.1.15,2013-04-23 13:07:00,
2013-04-23 09:09:00,51.5,46.2,29.99,SSE,161,3.0,4.0,82,0.00,,,0.00,Wunderground v.1.15,2013-04-23 13:09:00,
2013-04-23 09:11:00,51.7,46.4,29.99,SSE,166,2.0,5.0,82,0.00,,,0.00,Wunderground v.1.15,2013-04-23 13:11:00,
2013-04-23 09:12:00,51.8,46.5,29.99,SSE,165,1.0,5.0,82,0.00,,,0.00,Wunderground v.1.15,2013-04-23 13:12:00,
2013-04-23 09:14:00,51.9,46.6,29.99,SSE,163,2.0,5.0,82,0.00,,,0.00,Wunderground v.1.15,2013-04-23 13:14:00,
2013-04-23 09:16:00,52.1,46.4,29.98,SSE,163,2.0,5.0,81,0.00,,,0.00,Wunderground v.1.15,2013-04-23 13:16:00,
2013-04-23 09:18:00,52.2,46.5,29.99,SSE,160,4.0,7.0,81,0.00,,,0.00,Wunderground v.1.15,2013-04-23 13:18:00,
2013-04-23 09:19:00,52.3,46.6,29.98,SSE,160,1.0,7.0,81,0.00,,,0.00,Wunderground v.1.15,2013-04-23 13:19:00,
2013-04-23 09:22:00,52.5,46.5,29.98,SSE,164,3.0,4.0,80,0.00,,,0.00,Wunderground v.1.15,2013-04-23 13:22:00,
2013-04-23 09:23:00,52.6,46.6,29.98,SSE,165,1.0,4.0,80,0.00,,,0.00,Wunderground v.1.15,2013-04-23 13:23:00,
2013-04-23 09:24:00,52.7,46.7,29.98,SSE,165,2.0,5.0,80,0.00,,,0.00,Wunderground v.1.15,2013-04-23 13:24:00,
2013-04-23 09:27:00,52.9,46.9,29.98,SSE,160,2.0,5.0,80,0.00,,,0.00,Wunderground v.1.15,2013-04-23 13:27:00,
2013-04-23 09:28:00,53.0,47.0,29.98,SSE,159,1.0,5.0,80,0.00,,,0.00,Wunderground v.1.15,2013-04-23 13:28:00,
2013-04-23 09:29:00,53.1,47.1,29.98,SSE,163,5.0,5.0,80,0.00,,,0.00,Wunderground v.1.15,2013-04-23 13:29:00,
2013-04-23 09:30:00,53.1,46.8,29.97,SSE,163,2.0,5.0,79,0.00,,,0.00,Wunderground v.1.15,2013-04-23 13:30:00,
2013-04-23 09:32:00,53.3,47.3,29.97,SSE,168,5.0,5.0,80,0.00,,,0.00,Wunderground v.1.15,2013-04-23 13:32:00,
2013-04-23 09:33:00,53.4,47.4,29.97,SSE,165,3.0,5.0,80,0.00,,,0.00,Wunderground v.1.15,2013-04-23 13:33:00,
2013-04-23 09:34:00,53.5,47.1,29.97,SSE,155,2.0,5.0,79,0.00,,,0.00,Wunderground v.1.15,2013-04-23 13:34:00,
2013-04-23 09:35:00,53.6,47.2,29.97,SSE,158,3.0,5.0,79,0.00,,,0.00,Wunderground v.1.15,2013-04-23 13:35:00,
2013-04-23 09:37:00,53.7,47.3,29.96,South,173,4.0,5.0,79,0.00,,,0.00,Wunderground v.1.15,2013-04-23 13:37:00,
2013-04-23 09:38:00,53.9,47.5,29.96,SSE,165,1.0,5.0,79,0.00,,,0.00,Wunderground v.1.15,2013-04-23 13:38:00,
2013-04-23 09:40:00,54.1,47.4,29.97,South,184,1.0,5.0,78,0.00,,,0.00,Wunderground v.1.15,2013-04-23 13:40:00,
2013-04-23 09:42:00,54.4,47.7,29.97,SSE,162,2.0,5.0,78,0.00,,,0.00,Wunderground v.1.15,2013-04-23 13:42:00,
2013-04-23 09:44:00,54.5,47.8,29.97,SSE,160,3.0,5.0,78,0.00,,,0.00,Wunderground v.1.15,2013-04-23 13:44:00,
2013-04-23 09:45:00,54.7,48.0,29.97,SSE,159,3.0,5.0,78,0.00,,,0.00,Wunderground v.1.15,2013-04-23 13:45:00,
2013-04-23 09:46:00,54.8,48.1,29.97,SSE,166,3.0,5.0,78,0.00,,,0.00,Wunderground v.1.15,2013-04-23 13:46:00,
2013-04-23 09:47:00,55.0,48.3,29.97,South,173,3.0,5.0,78,0.00,,,0.00,Wunderground v.1.15,2013-04-23 13:47:00,
2013-04-23 09:49:00,55.2,48.1,29.97,SSE,161,3.0,6.0,77,0.00,,,0.00,Wunderground v.1.15,2013-04-23 13:49:00,
2013-04-23 09:50:00,55.3,48.2,29.97,SSE,161,2.0,6.0,77,0.00,,,0.00,Wunderground v.1.15,2013-04-23 13:50:00,
2013-04-23 09:51:00,55.4,48.3,29.97,SSE,165,3.0,5.0,77,0.00,,,0.00,Wunderground v.1.15,2013-04-23 13:51:00,
2013-04-23 09:53:00,55.6,48.5,29.97,South,175,5.0,5.0,77,0.00,,,0.00,Wunderground v.1.15,2013-04-23 13:53:00,
2013-04-23 09:55:00,55.9,48.1,29.97,South,172,2.0,10.0,75,0.00,,,0.00,Wunderground v.1.15,2013-04-23 13:55:00,
2013-04-23 09:56:00,56.1,48.3,29.97,SSE,155,2.0,10.0,75,0.00,,,0.00,Wunderground v.1.15,2013-04-23 13:56:00,
2013-04-23 09:58:00,56.2,48.4,29.97,SSE,157,0.0,10.0,75,0.00,,,0.00,Wunderground v.1.15,2013-04-23 13:58:00,
2013-04-23 10:00:00,56.6,48.8,29.97,SSE,159,2.0,3.0,75,0.00,,,0.00,Wunderground v.1.15,2013-04-23 14:00:00,
2013-04-23 10:01:00,56.6,48.8,29.97,SSE,159,2.0,3.0,75,0.00,,,0.00,Wunderground v.1.15,2013-04-23 14:01:00,
2013-04-23 10:02:00,56.7,48.9,29.97,SE,146,6.0,6.0,75,0.00,,,0.00,Wunderground v.1.15,2013-04-23 14:02:00,
2013-04-23 10:03:00,56.9,48.7,29.97,SSE,157,2.0,6.0,74,0.00,,,0.00,Wunderground v.1.15,2013-04-23 14:03:00,
2013-04-23 10:06:00,57.2,48.6,29.97,SSE,165,3.0,9.0,73,0.00,,,0.00,Wunderground v.1.15,2013-04-23 14:06:00,
2013-04-23 10:07:00,57.3,48.7,29.97,SSE,167,4.0,9.0,73,0.00,,,0.00,Wunderground v.1.15,2013-04-23 14:07:00,
2013-04-23 10:09:00,57.5,48.2,29.96,South,169,4.0,9.0,71,0.00,,,0.00,Wunderground v.1.15,2013-04-23 14:09:00,
2013-04-23 10:11:00,57.7,48.7,29.96,SSE,154,3.0,9.0,72,0.00,,,0.00,Wunderground v.1.15,2013-04-23 14:11:00,
2013-04-23 10:12:00,57.8,48.5,29.96,SSE,152,5.0,9.0,71,0.00,,,0.00,Wunderground v.1.15,2013-04-23 14:12:00,
2013-04-23 10:14:00,58.0,48.6,29.96,SSE,165,4.0,9.0,71,0.00,,,0.00,Wunderground v.1.15,2013-04-23 14:14:00,
2013-04-23 10:16:00,58.1,48.7,29.96,South,169,4.0,9.0,71,0.00,,,0.00,Wunderground v.1.15,2013-04-23 14:16:00,
2013-04-23 10:17:00,58.2,48.8,29.96,SE,128,2.0,9.0,71,0.00,,,0.00,Wunderground v.1.15,2013-04-23 14:17:00,
2013-04-23 10:19:00,58.3,48.9,29.96,SSE,158,6.0,12.0,71,0.00,,,0.00,Wunderground v.1.15,2013-04-23 14:19:00,
2013-04-23 10:22:00,58.5,48.7,29.96,SSE,167,6.0,7.0,70,0.00,,,0.00,Wunderground v.1.15,2013-04-23 14:22:00,
2013-04-23 10:23:00,58.6,48.8,29.96,SSW,192,5.0,7.0,70,0.00,,,0.00,Wunderground v.1.15,2013-04-23 14:23:00,
2013-04-23 10:24:00,58.7,48.9,29.96,SSE,157,2.0,7.0,70,0.00,,,0.00,Wunderground v.1.15,2013-04-23 14:24:00,
2013-04-23 10:25:00,58.7,48.9,29.96,South,180,7.0,10.0,70,0.00,,,0.00,Wunderground v.1.15,2013-04-23 14:25:00,
2013-04-23 10:27:00,59.0,49.2,29.96,South,171,4.0,10.0,70,0.00,,,0.00,Wunderground v.1.15,2013-04-23 14:27:00,
2013-04-23 10:28:00,59.0,49.6,29.96,South,171,1.0,10.0,71,0.00,,,0.00,Wunderground v.1.15,2013-04-23 14:28:00,
2013-04-23 10:29:00,59.0,48.8,29.96,SSW,202,4.0,10.0,69,0.00,,,0.00,Wunderground v.1.15,2013-04-23 14:29:00,
2013-04-23 10:30:00,59.0,48.8,29.96,SSE,159,3.0,4.0,69,0.00,,,0.00,Wunderground v.1.15,2013-04-23 14:30:00,
2013-04-23 10:32:00,59.0,48.8,29.96,SSW,207,4.0,14.0,69,0.00,,,0.00,Wunderground v.1.15,2013-04-23 14:32:00,
2013-04-23 10:33:00,59.0,48.8,29.96,SE,146,4.0,14.0,69,0.00,,,0.00,Wunderground v.1.15,2013-04-23 14:33:00,
2013-04-23 10:34:00,59.2,49.0,29.96,South,172,5.0,14.0,69,0.00,,,0.00,Wunderground v.1.15,2013-04-23 14:34:00,
2013-04-23 10:35:00,59.2,49.0,29.96,South,190,1.0,14.0,69,0.00,,,0.00,Wunderground v.1.15,2013-04-23 14:35:00,
2013-04-23 10:37:00,59.5,49.3,29.96,SSE,154,5.0,14.0,69,0.00,,,0.00,Wunderground v.1.15,2013-04-23 14:37:00,
2013-04-23 10:38:00,59.6,49.4,29.96,SSE,164,1.0,14.0,69,0.00,,,0.00,Wunderground v.1.15,2013-04-23 14:38:00,
2013-04-23 10:40:00,59.7,49.1,29.96,South,172,4.0,5.0,68,0.00,,,0.00,Wunderground v.1.15,2013-04-23 14:40:00,
2013-04-23 10:42:00,59.8,49.2,29.96,South,171,4.0,7.0,68,0.00,,,0.00,Wunderground v.1.15,2013-04-23 14:42:00,
2013-04-23 10:43:00,59.8,49.2,29.96,South,180,2.0,7.0,68,0.00,,,0.00,Wunderground v.1.15,2013-04-23 14:43:00,
2013-04-23 10:45:00,60.0,49.4,29.96,SE,146,5.0,7.0,68,0.00,,,0.00,Wunderground v.1.15,2013-04-23 14:45:00,
2013-04-23 10:46:00,60.0,49.4,29.96,South,173,2.0,7.0,68,0.00,,,0.00,Wunderground v.1.15,2013-04-23 14:46:00,
2013-04-23 10:47:00,60.1,49.5,29.95,SSE,159,6.0,7.0,68,0.00,,,0.00,Wunderground v.1.15,2013-04-23 14:47:00,
2013-04-23 10:48:00,60.2,49.6,29.95,SSW,209,2.0,10.0,68,0.00,,,0.00,Wunderground v.1.15,2013-04-23 14:48:00,
2013-04-23 10:49:00,60.2,49.2,29.95,SSE,163,0.0,10.0,67,0.00,,,0.00,Wunderground v.1.15,2013-04-23 14:49:00,
2013-04-23 10:51:00,60.4,49.8,29.95,SSE,165,2.0,7.0,68,0.00,,,0.00,Wunderground v.1.15,2013-04-23 14:51:00,
2013-04-23 10:53:00,60.5,49.9,29.95,SSE,161,1.0,7.0,68,0.00,,,0.00,Wunderground v.1.15,2013-04-23 14:53:00,
2013-04-23 10:54:00,60.5,49.5,29.95,SSE,166,1.0,7.0,67,0.00,,,0.00,Wunderground v.1.15,2013-04-23 14:54:00,
2013-04-23 10:56:00,60.6,49.6,29.95,SSW,203,0.0,9.0,67,0.00,,,0.00,Wunderground v.1.15,2013-04-23 14:56:00,
2013-04-23 10:58:00,60.7,49.7,29.95,South,184,1.0,9.0,67,0.00,,,0.00,Wunderground v.1.15,2013-04-23 14:58:00,
2013-04-23 10:59:00,60.8,50.2,29.95,SSW,194,7.0,9.0,68,0.00,,,0.00,Wunderground v.1.15,2013-04-23 14:59:00,
2013-04-23 11:01:00,60.9,49.9,29.95,SSW,200,7.0,10.0,67,0.00,,,0.00,Wunderground v.1.15,2013-04-23 15:01:00,
2013-04-23 11:02:00,60.9,49.5,29.95,SW,219,4.0,10.0,66,0.00,,,0.00,Wunderground v.1.15,2013-04-23 15:02:00,
2013-04-23 11:04:00,61.0,49.6,29.95,SSW,209,4.0,10.0,66,0.00,,,0.00,Wunderground v.1.15,2013-04-23 15:04:00,
2013-04-23 11:07:00,61.2,50.2,29.95,South,188,6.0,10.0,67,0.00,,,0.00,Wunderground v.1.15,2013-04-23 15:07:00,
2013-04-23 11:09:00,61.2,50.2,29.95,SSW,213,3.0,10.0,67,0.00,,,0.00,Wunderground v.1.15,2013-04-23 15:09:00,
2013-04-23 11:10:00,61.2,50.2,29.95,SSW,200,6.0,10.0,67,0.00,,,0.00,Wunderground v.1.15,2013-04-23 15:10:00,
2013-04-23 11:12:00,61.3,50.2,29.94,SSW,200,2.0,6.0,67,0.00,,,0.00,Wunderground v.1.15,2013-04-23 15:12:00,
2013-04-23 11:14:00,61.5,50.8,29.95,SSE,161,0.0,6.0,68,0.00,,,0.00,Wunderground v.1.15,2013-04-23 15:14:00,
2013-04-23 11:15:00,61.5,50.8,29.95,SSW,196,1.0,6.0,68,0.00,,,0.00,Wunderground v.1.15,2013-04-23 15:15:00,
2013-04-23 11:17:00,61.7,50.6,29.95,South,178,2.0,6.0,67,0.00,,,0.00,Wunderground v.1.15,2013-04-23 15:17:00,
2013-04-23 11:18:00,61.7,50.6,29.95,South,180,3.0,6.0,67,0.00,,,0.00,Wunderground v.1.15,2013-04-23 15:18:00,
2013-04-23 11:19:00,61.8,51.1,29.95,South,176,6.0,6.0,68,0.00,,,0.00,Wunderground v.1.15,2013-04-23 15:19:00,
2013-04-23 11:20:00,61.8,50.7,29.95,SSW,196,6.0,7.0,67,0.00,,,0.00,Wunderground v.1.15,2013-04-23 15:20:00,
2013-04-23 11:21:00,61.8,50.7,29.95,SSW,207,5.0,7.0,67,0.00,,,0.00,Wunderground v.1.15,2013-04-23 15:21:00,
2013-04-23 11:22:00,61.9,50.0,29.94,South,182,7.0,7.0,65,0.00,,,0.00,Wunderground v.1.15,2013-04-23 15:22:00,
2013-04-23 11:23:00,61.9,50.0,29.94,South,179,3.0,7.0,65,0.00,,,0.00,Wunderground v.1.15,2013-04-23 15:23:00,
2013-04-23 11:25:00,62.0,50.1,29.94,South,177,1.0,9.0,65,0.00,,,0.00,Wunderground v.1.15,2013-04-23 15:25:00,
2013-04-23 11:26:00,62.0,50.5,29.94,SSW,194,4.0,9.0,66,0.00,,,0.00,Wunderground v.1.15,2013-04-23 15:26:00,
2013-04-23 11:28:00,62.0,50.5,29.94,SSW,203,2.0,9.0,66,0.00,,,0.00,Wunderground v.1.15,2013-04-23 15:28:00,
2013-04-23 11:30:00,62.0,50.1,29.94,South,190,9.0,9.0,65,0.00,,,0.00,Wunderground v.1.15,2013-04-23 15:30:00,
2013-04-23 11:31:00,62.0,50.1,29.94,SSW,211,4.0,9.0,65,0.00,,,0.00,Wunderground v.1.15,2013-04-23 15:31:00,
2013-04-23 11:32:00,62.0,50.1,29.94,SSW,211,1.0,9.0,65,0.00,,,0.00,Wunderground v.1.15,2013-04-23 15:32:00,
2013-04-23 11:33:00,62.0,50.1,29.94,SSE,157,4.0,9.0,65,0.00,,,0.00,Wunderground v.1.15,2013-04-23 15:33:00,
2013-04-23 11:35:00,62.1,50.2,29.94,SSW,196,11.0,12.0,65,0.00,,,0.00,Wunderground v.1.15,2013-04-23 15:35:00,
2013-04-23 11:37:00,62.1,50.2,29.94,South,186,7.0,12.0,65,0.00,,,0.00,Wunderground v.1.15,2013-04-23 15:37:00,
2013-04-23 11:38:00,62.1,50.2,29.94,South,171,6.0,12.0,65,0.00,,,0.00,Wunderground v.1.15,2013-04-23 15:38:00,
2013-04-23 11:40:00,62.1,50.2,29.94,SSE,157,4.0,12.0,65,0.00,,,0.00,Wunderground v.1.15,2013-04-23 15:40:00,
2013-04-23 11:42:00,62.1,50.2,29.93,South,181,3.0,12.0,65,0.00,,,0.00,Wunderground v.1.15,2013-04-23 15:42:00,
2013-04-23 11:44:00,62.1,50.2,29.94,South,190,6.0,12.0,65,0.00,,,0.00,Wunderground v.1.15,2013-04-23 15:44:00,
2013-04-23 11:46:00,62.0,49.7,29.94,South,170,3.0,12.0,64,0.00,,,0.00,Wunderground v.1.15,2013-04-23 15:46:00,
2013-04-23 11:47:00,62.1,50.2,29.94,SW,214,4.0,12.0,65,0.00,,,0.00,Wunderground v.1.15,2013-04-23 15:47:00,
2013-04-23 11:49:00,62.1,50.6,29.94,South,186,1.0,12.0,66,0.00,,,0.00,Wunderground v.1.15,2013-04-23 15:49:00,
2013-04-23 11:50:00,62.1,50.6,29.94,South,176,2.0,5.0,66,0.00,,,0.00,Wunderground v.1.15,2013-04-23 15:50:00,
2013-04-23 11:51:00,62.1,51.0,29.94,South,177,4.0,5.0,67,0.00,,,0.00,Wunderground v.1.15,2013-04-23 15:51:00,
2013-04-23 11:52:00,62.1,50.6,29.94,South,185,5.0,9.0,66,0.00,,,0.00,Wunderground v.1.15,2013-04-23 15:52:00,
2013-04-23 11:54:00,62.2,50.3,29.93,South,187,2.0,9.0,65,0.00,,,0.00,Wunderground v.1.15,2013-04-23 15:54:00,
2013-04-23 11:55:00,62.2,50.3,29.93,SW,215,2.0,9.0,65,0.00,,,0.00,Wunderground v.1.15,2013-04-23 15:55:00,
2013-04-23 11:56:00,62.2,50.7,29.93,SSW,192,3.0,9.0,66,0.00,,,0.00,Wunderground v.1.15,2013-04-23 15:56:00,
2013-04-23 11:57:00,62.2,50.3,29.93,SSW,195,3.0,11.0,65,0.00,,,0.00,Wunderground v.1.15,2013-04-23 15:57:00,
2013-04-23 11:58:00,62.2,50.3,29.93,SSW,204,4.0,11.0,65,0.00,,,0.00,Wunderground v.1.15,2013-04-23 15:58:00,
2013-04-23 11:59:00,62.2,49.9,29.93,SSW,192,0.0,11.0,64,0.00,,,0.00,Wunderground v.1.15,2013-04-23 15:59:00,
2013-04-23 12:01:00,62.2,50.3,29.93,South,183,4.0,4.0,65,0.00,,,0.00,Wunderground v.1.15,2013-04-23 16:01:00,
2013-04-23 12:03:00,62.2,50.3,29.93,SSE,153,2.0,10.0,65,0.00,,,0.00,Wunderground v.1.15,2013-04-23 16:03:00,
2013-04-23 12:05:00,62.3,50.8,29.93,South,187,10.0,10.0,66,0.00,,,0.00,Wunderground v.1.15,2013-04-23 16:05:00,
2013-04-23 12:06:00,62.3,50.4,29.93,South,178,2.0,13.0,65,0.00,,,0.00,Wunderground v.1.15,2013-04-23 16:06:00,
2013-04-23 12:07:00,62.3,50.4,29.93,South,181,6.0,13.0,65,0.00,,,0.00,Wunderground v.1.15,2013-04-23 16:07:00,
2013-04-23 12:08:00,62.3,50.4,29.93,South,188,2.0,13.0,65,0.00,,,0.00,Wunderground v.1.15,2013-04-23 16:08:00,
2013-04-23 12:09:00,62.4,50.9,29.93,SSW,195,4.0,13.0,66,0.00,,,0.00,Wunderground v.1.15,2013-04-23 16:09:00,
2013-04-23 12:10:00,62.4,50.5,29.93,SSW,198,4.0,11.0,65,0.00,,,0.00,Wunderground v.1.15,2013-04-23 16:10:00,
2013-04-23 12:11:00,62.4,50.5,29.93,SSW,203,6.0,11.0,65,0.00,,,0.00,Wunderground v.1.15,2013-04-23 16:11:00,
2013-04-23 12:12:00,62.4,50.1,29.93,South,183,1.0,11.0,64,0.00,,,0.00,Wunderground v.1.15,2013-04-23 16:12:00,
2013-04-23 12:13:00,62.5,50.6,29.93,SW,218,3.0,11.0,65,0.00,,,0.00,Wunderground v.1.15,2013-04-23 16:13:00,
2013-04-23 12:14:00,62.5,50.6,29.93,SSE,156,3.0,11.0,65,0.00,,,0.00,Wunderground v.1.15,2013-04-23 16:14:00,
2013-04-23 12:15:00,62.6,51.1,29.92,SSE,161,1.0,11.0,66,0.00,,,0.00,Wunderground v.1.15,2013-04-23 16:15:00,
2013-04-23 12:17:00,62.7,51.6,29.92,South,171,3.0,11.0,67,0.00,,,0.00,Wunderground v.1.15,2013-04-23 16:17:00,
2013-04-23 12:19:00,62.8,51.3,29.93,WSW,246,6.0,11.0,66,0.00,,,0.00,Wunderground v.1.15,2013-04-23 16:19:00,
2013-04-23 12:22:00,62.9,51.0,29.92,South,190,1.0,6.0,65,0.00,,,0.00,Wunderground v.1.15,2013-04-23 16:22:00,
2013-04-23 12:24:00,63.1,50.7,29.93,SSW,205,0.0,11.0,64,0.00,,,0.00,Wunderground v.1.15,2013-04-23 16:24:00,
2013-04-23 12:26:00,63.2,51.6,29.92,SSW,198,2.0,11.0,66,0.00,,,0.00,Wunderground v.1.15,2013-04-23 16:26:00,
2013-04-23 12:27:00,63.3,51.7,29.92,SSW,198,5.0,11.0,66,0.00,,,0.00,Wunderground v.1.15,2013-04-23 16:27:00,
2013-04-23 12:28:00,63.3,51.7,29.92,SSW,202,2.0,11.0,66,0.00,,,0.00,Wunderground v.1.15,2013-04-23 16:28:00,
2013-04-23 12:29:00,63.4,51.4,29.92,SSW,205,2.0,11.0,65,0.00,,,0.00,Wunderground v.1.15,2013-04-23 16:29:00,
2013-04-23 12:31:00,63.6,51.6,29.92,South,186,7.0,8.0,65,0.00,,,0.00,Wunderground v.1.15,2013-04-23 16:31:00,
2013-04-23 12:32:00,63.6,51.6,29.92,SSE,164,4.0,8.0,65,0.00,,,0.00,Wunderground v.1.15,2013-04-23 16:32:00,
2013-04-23 12:33:00,63.7,51.3,29.92,SSE,167,1.0,8.0,64,0.00,,,0.00,Wunderground v.1.15,2013-04-23 16:33:00,
2013-04-23 12:34:00,63.8,51.4,29.92,South,184,7.0,10.0,64,0.00,,,0.00,Wunderground v.1.15,2013-04-23 16:34:00,
2013-04-23 12:37:00,64.0,51.6,29.92,South,179,4.0,10.0,64,0.00,,,0.00,Wunderground v.1.15,2013-04-23 16:37:00,
2013-04-23 12:38:00,64.1,52.1,29.92,SSE,160,5.0,10.0,65,0.00,,,0.00,Wunderground v.1.15,2013-04-23 16:38:00,
2013-04-23 12:40:00,64.3,51.9,29.93,SSE,159,4.0,5.0,64,0.00,,,0.00,Wunderground v.1.15,2013-04-23 16:40:00,
2013-04-23 12:42:00,64.4,52.0,29.92,SW,217,2.0,5.0,64,0.00,,,0.00,Wunderground v.1.15,2013-04-23 16:42:00,
2013-04-23 12:43:00,64.5,51.6,29.92,SSE,148,1.0,5.0,63,0.00,,,0.00,Wunderground v.1.15,2013-04-23 16:43:00,
2013-04-23 12:46:00,64.8,52.3,29.92,South,183,2.0,10.0,64,0.00,,,0.00,Wunderground v.1.15,2013-04-23 16:46:00,
2013-04-23 12:47:00,64.9,52.0,29.92,South,188,3.0,10.0,63,0.00,,,0.00,Wunderground v.1.15,2013-04-23 16:47:00,
2013-04-23 12:48:00,64.9,52.0,29.92,SSW,195,0.0,10.0,63,0.00,,,0.00,Wunderground v.1.15,2013-04-23 16:48:00,
2013-04-23 12:49:00,65.0,52.1,29.92,South,181,1.0,10.0,63,0.00,,,0.00,Wunderground v.1.15,2013-04-23 16:49:00,
2013-04-23 12:51:00,65.2,53.1,29.92,SSE,155,0.0,4.0,65,0.00,,,0.00,Wunderground v.1.15,2013-04-23 16:51:00,
2013-04-23 12:52:00,65.3,53.2,29.92,South,179,3.0,4.0,65,0.00,,,0.00,Wunderground v.1.15,2013-04-23 16:52:00,
2013-04-23 12:54:00,65.3,52.8,29.92,SW,217,2.0,6.0,64,0.00,,,0.00,Wunderground v.1.15,2013-04-23 16:54:00,
2013-04-23 12:56:00,65.5,52.6,29.91,South,188,4.0,6.0,63,0.00,,,0.00,Wunderground v.1.15,2013-04-23 16:56:00,
2013-04-23 12:58:00,65.5,53.0,29.91,South,172,4.0,6.0,64,0.00,,,0.00,Wunderground v.1.15,2013-04-23 16:58:00,
2013-04-23 12:59:00,65.6,52.7,29.91,South,182,4.0,6.0,63,0.00,,,0.00,Wunderground v.1.15,2013-04-23 16:59:00,
2013-04-23 13:01:00,65.7,52.3,29.91,SSW,204,2.0,8.0,62,0.00,,,0.00,Wunderground v.1.15,2013-04-23 17:01:00,
2013-04-23 13:03:00,65.8,52.9,29.91,South,171,7.0,8.0,63,0.00,,,0.00,Wunderground v.1.15,2013-04-23 17:03:00,
2013-04-23 13:04:00,65.8,52.4,29.91,South,182,0.0,8.0,62,0.00,,,0.00,Wunderground v.1.15,2013-04-23 17:04:00,
2013-04-23 13:05:00,65.8,52.4,29.91,South,188,3.0,8.0,62,0.00,,,0.00,Wunderground v.1.15,2013-04-23 17:05:00,
2013-04-23 13:07:00,66.0,53.0,29.91,South,173,5.0,8.0,63,0.00,,,0.00,Wunderground v.1.15,2013-04-23 17:07:00,
2013-04-23 13:08:00,66.1,52.7,29.91,SE,142,4.0,9.0,62,0.00,,,0.00,Wunderground v.1.15,2013-04-23 17:08:00,
2013-04-23 13:09:00,66.1,52.7,29.90,SSE,168,5.0,10.0,62,0.00,,,0.00,Wunderground v.1.15,2013-04-23 17:09:00,
2013-04-23 13:10:00,66.1,52.7,29.90,SSE,161,2.0,10.0,62,0.00,,,0.00,Wunderground v.1.15,2013-04-23 17:10:00,
2013-04-23 13:12:00,66.2,52.3,29.90,SSE,165,1.0,7.0,61,0.00,,,0.00,Wunderground v.1.15,2013-04-23 17:12:00,
2013-04-23 13:14:00,66.2,52.8,29.90,SSW,213,3.0,9.0,62,0.00,,,0.00,Wunderground v.1.15,2013-04-23 17:14:00,
2013-04-23 13:15:00,66.2,52.3,29.90,South,187,0.0,9.0,61,0.00,,,0.00,Wunderground v.1.15,2013-04-23 17:15:00,
2013-04-23 13:17:00,66.2,52.8,29.90,South,183,1.0,9.0,62,0.00,,,0.00,Wunderground v.1.15,2013-04-23 17:17:00,
2013-04-23 13:19:00,66.2,52.3,29.90,SSW,209,3.0,9.0,61,0.00,,,0.00,Wunderground v.1.15,2013-04-23 17:19:00,
2013-04-23 13:20:00,66.2,52.3,29.90,SSW,201,14.0,14.0,61,0.00,,,0.00,Wunderground v.1.15,2013-04-23 17:20:00,
2013-04-23 13:21:00,66.1,51.8,29.90,SW,217,4.0,7.0,60,0.00,,,0.00,Wunderground v.1.15,2013-04-23 17:21:00,
2013-04-23 13:23:00,66.1,51.4,29.90,SSW,203,7.0,13.0,59,0.00,,,0.00,Wunderground v.1.15,2013-04-23 17:23:00,
2013-04-23 13:24:00,66.0,51.3,29.90,WSW,245,1.0,13.0,59,0.00,,,0.00,Wunderground v.1.15,2013-04-23 17:24:00,
2013-04-23 13:25:00,65.9,50.7,29.90,South,173,4.0,13.0,58,0.00,,,0.00,Wunderground v.1.15,2013-04-23 17:25:00,
2013-04-23 13:26:00,65.9,52.1,29.90,South,185,5.0,13.0,61,0.00,,,0.00,Wunderground v.1.15,2013-04-23 17:26:00,
2013-04-23 13:28:00,65.8,51.5,29.90,South,184,3.0,13.0,60,0.00,,,0.00,Wunderground v.1.15,2013-04-23 17:28:00,
2013-04-23 13:29:00,65.7,51.4,29.90,South,189,6.0,13.0,60,0.00,,,0.00,Wunderground v.1.15,2013-04-23 17:29:00,
2013-04-23 13:30:00,65.6,51.3,29.90,SW,223,1.0,5.0,60,0.00,,,0.00,Wunderground v.1.15,2013-04-23 17:30:00,
2013-04-23 13:31:00,65.6,51.3,29.90,SE,146,3.0,5.0,60,0.00,,,0.00,Wunderground v.1.15,2013-04-23 17:31:00,
2013-04-23 13:32:00,65.6,51.3,29.90,SSW,197,0.0,5.0,60,0.00,,,0.00,Wunderground v.1.15,2013-04-23 17:32:00,
2013-04-23 13:34:00,65.5,51.7,29.90,South,176,5.0,5.0,61,0.00,,,0.00,Wunderground v.1.15,2013-04-23 17:34:00,
2013-04-23 13:35:00,65.4,51.1,29.90,SW,218,3.0,7.0,60,0.00,,,0.00,Wunderground v.1.15,2013-04-23 17:35:00,
2013-04-23 13:36:00,65.4,51.1,29.90,SW,218,2.0,7.0,60,0.00,,,0.00,Wunderground v.1.15,2013-04-23 17:36:00,
2013-04-23 13:37:00,65.3,51.1,29.90,SW,219,0.0,7.0,60,0.00,,,0.00,Wunderground v.1.15,2013-04-23 17:37:00,
2013-04-23 13:39:00,65.2,51.0,29.90,SW,219,0.0,7.0,60,0.00,,,0.00,Wunderground v.1.15,2013-04-23 17:39:00,
2013-04-23 13:41:00,65.2,51.0,29.90,SW,219,2.0,3.0,60,0.00,,,0.00,Wunderground v.1.15,2013-04-23 17:41:00,
2013-04-23 13:42:00,65.1,51.3,29.90,SW,224,5.0,7.0,61,0.00,,,0.00,Wunderground v.1.15,2013-04-23 17:42:00,
2013-04-23 13:44:00,65.0,51.2,29.90,West,263,4.0,7.0,61,0.00,,,0.00,Wunderground v.1.15,2013-04-23 17:44:00,
2013-04-23 13:45:00,65.0,51.2,29.90,West,259,5.0,9.0,61,0.00,,,0.00,Wunderground v.1.15,2013-04-23 17:45:00,
2013-04-23 13:46:00,64.7,50.5,29.90,NNW,334,4.0,9.0,60,0.00,,,0.00,Wunderground v.1.15,2013-04-23 17:46:00,
2013-04-23 13:48:00,62.6,47.6,29.90,WNW,300,6.0,10.0,58,0.00,,,0.00,Wunderground v.1.15,2013-04-23 17:48:00,
2013-04-23 13:49:00,60.7,46.7,29.90,WNW,282,3.0,10.0,60,0.00,,,0.00,Wunderground v.1.15,2013-04-23 17:49:00,
2013-04-23 13:50:00,60.5,46.5,29.90,WNW,282,2.0,3.0,60,0.00,,,0.00,Wunderground v.1.15,2013-04-23 17:50:00,
2013-04-23 13:51:00,59.1,46.5,29.90,NW,309,6.0,6.0,63,0.00,,,0.00,Wunderground v.1.15,2013-04-23 17:51:00,
2013-04-23 13:53:00,57.1,45.4,29.90,NW,325,3.0,7.0,65,0.00,,,0.00,Wunderground v.1.15,2013-04-23 17:53:00,
2013-04-23 13:55:00,55.8,45.4,29.90,NW,313,1.0,7.0,68,0.00,,,0.00,Wunderground v.1.15,2013-04-23 17:55:00,
2013-04-23 13:56:00,54.8,45.2,29.90,NW,322,7.0,7.0,70,0.00,,,0.00,Wunderground v.1.15,2013-04-23 17:56:00,
2013-04-23 13:57:00,54.6,45.0,29.90,NW,322,6.0,8.0,70,0.00,,,0.00,Wunderground v.1.15,2013-04-23 17:57:00,
2013-04-23 13:58:00,53.6,44.8,29.89,NW,316,0.0,8.0,72,0.00,,,0.00,Wunderground v.1.15,2013-04-23 17:58:00,
2013-04-23 14:00:00,53.2,44.8,29.89,NW,320,2.0,3.0,73,0.00,,,0.00,Wunderground v.1.15,2013-04-23 18:00:00,
2013-04-23 14:02:00,52.7,44.6,29.89,NW,320,2.0,3.0,74,0.00,,,0.00,Wunderground v.1.15,2013-04-23 18:02:00,
2013-04-23 14:04:00,52.3,44.6,29.89,NW,322,4.0,6.0,75,0.00,,,0.00,Wunderground v.1.15,2013-04-23 18:04:00,
2013-04-23 14:05:00,52.0,44.7,29.89,WNW,295,2.0,6.0,76,0.00,,,0.00,Wunderground v.1.15,2013-04-23 18:05:00,
2013-04-23 14:07:00,51.8,44.8,29.89,NW,314,0.0,6.0,77,0.00,,,0.00,Wunderground v.1.15,2013-04-23 18:07:00,
2013-04-23 14:09:00,51.6,45.0,29.89,NW,311,2.0,6.0,78,0.00,,,0.00,Wunderground v.1.15,2013-04-23 18:09:00,
2013-04-23 14:10:00,51.6,45.0,29.89,NW,319,4.0,4.0,78,0.00,,,0.00,Wunderground v.1.15,2013-04-23 18:10:00,
2013-04-23 14:12:00,51.4,45.1,29.89,NW,318,6.0,7.0,79,0.00,,,0.00,Wunderground v.1.15,2013-04-23 18:12:00,
2013-04-23 14:13:00,51.2,45.2,29.89,NW,318,2.0,7.0,80,0.00,,,0.00,Wunderground v.1.15,2013-04-23 18:13:00,
2013-04-23 14:14:00,51.0,45.0,29.89,NNW,333,3.0,7.0,80,0.00,,,0.00,Wunderground v.1.15,2013-04-23 18:14:00,
2013-04-23 14:15:00,50.9,45.3,29.89,NW,325,0.0,7.0,81,0.00,,,0.00,Wunderground v.1.15,2013-04-23 18:15:00,
2013-04-23 14:17:00,50.8,45.5,29.89,NNW,344,3.0,7.0,82,0.00,,,0.00,Wunderground v.1.15,2013-04-23 18:17:00,
2013-04-23 14:18:00,50.7,45.4,29.89,NNW,339,4.0,7.0,82,0.00,,,0.00,Wunderground v.1.15,2013-04-23 18:18:00,
2013-04-23 14:20:00,50.7,45.4,29.89,NNW,338,2.0,3.0,82,0.00,,,0.00,Wunderground v.1.15,2013-04-23 18:20:00,
2013-04-23 14:21:00,50.7,45.4,29.89,NNW,338,0.0,3.0,82,0.00,,,0.00,Wunderground v.1.15,2013-04-23 18:21:00,
2013-04-23 14:22:00,50.8,45.5,29.89,NNW,338,2.0,3.0,82,0.00,,,0.00,Wunderground v.1.15,2013-04-23 18:22:00,
2013-04-23 14:24:00,50.8,45.5,29.89,NNW,338,1.0,3.0,82,0.00,,,0.00,Wunderground v.1.15,2013-04-23 18:24:00,
2013-04-23 14:25:00,50.8,45.8,29.89,NNW,338,0.0,3.0,83,0.00,,,0.00,Wunderground v.1.15,2013-04-23 18:25:00,
2013-04-23 14:26:00,50.8,45.8,29.89,NNW,338,0.0,3.0,83,0.00,,,0.01,Wunderground v.1.15,2013-04-23 18:26:00,
2013-04-23 14:28:00,50.8,46.1,29.89,NNW,338,3.0,4.0,84,0.00,,,0.01,Wunderground v.1.15,2013-04-23 18:28:00,
2013-04-23 14:29:00,50.7,45.7,29.89,NW,318,5.0,5.0,83,0.00,,,0.01,Wunderground v.1.15,2013-04-23 18:29:00,
2013-04-23 14:30:00,50.7,45.7,29.89,NW,318,6.0,6.0,83,0.00,,,0.01,Wunderground v.1.15,2013-04-23 18:30:00,
2013-04-23 14:31:00,50.7,45.7,29.89,NW,319,7.0,7.0,83,0.00,,,0.01,Wunderground v.1.15,2013-04-23 18:31:00,
2013-04-23 14:33:00,50.8,45.8,29.90,NW,311,7.0,7.0,83,0.00,,,0.01,Wunderground v.1.15,2013-04-23 18:33:00,
2013-04-23 14:34:00,50.8,45.8,29.90,NW,317,4.0,8.0,83,0.00,,,0.01,Wunderground v.1.15,2013-04-23 18:34:00,
2013-04-23 14:35:00,50.8,45.8,29.90,NW,319,5.0,8.0,83,0.00,,,0.01,Wunderground v.1.15,2013-04-23 18:35:00,
2013-04-23 14:36:00,50.6,45.6,29.90,NW,315,0.0,8.0,83,0.00,,,0.01,Wunderground v.1.15,2013-04-23 18:36:00,
2013-04-23 14:37:00,50.6,45.6,29.90,NW,316,0.0,8.0,83,0.00,,,0.01,Wunderground v.1.15,2013-04-23 18:37:00,
2013-04-23 14:38:00,50.6,45.9,29.90,NW,311,2.0,8.0,84,0.00,,,0.01,Wunderground v.1.15,2013-04-23 18:38:00,
2013-04-23 14:39:00,50.6,45.9,29.90,NNW,331,4.0,10.0,84,0.00,,,0.01,Wunderground v.1.15,2013-04-23 18:39:00,
2013-04-23 14:41:00,50.5,45.8,29.90,NW,323,6.0,6.0,84,0.04,,,0.02,Wunderground v.1.15,2013-04-23 18:41:00,
2013-04-23 14:43:00,50.4,46.1,29.90,NW,319,11.0,11.0,85,0.04,,,0.02,Wunderground v.1.15,2013-04-23 18:43:00,
2013-04-23 14:44:00,50.4,46.4,29.91,WNW,292,9.0,11.0,86,0.04,,,0.02,Wunderground v.1.15,2013-04-23 18:44:00,
2013-04-23 14:47:00,50.2,46.2,29.91,West,272,4.0,11.0,86,0.12,,,0.03,Wunderground v.1.15,2013-04-23 18:47:00,
2013-04-23 14:48:00,50.1,46.1,29.92,West,280,4.0,11.0,86,0.21,,,0.04,Wunderground v.1.15,2013-04-23 18:48:00,
2013-04-23 14:49:00,49.9,45.9,29.92,West,279,2.0,11.0,86,0.21,,,0.04,Wunderground v.1.15,2013-04-23 18:49:00,
2013-04-23 14:52:00,49.7,45.7,29.92,NW,325,9.0,9.0,86,0.23,,,0.05,Wunderground v.1.15,2013-04-23 18:52:00,
2013-04-23 14:53:00,49.5,45.8,29.92,West,262,3.0,9.0,87,0.20,,,0.05,Wunderground v.1.15,2013-04-23 18:53:00,
2013-04-23 14:54:00,49.4,45.4,29.92,NW,317,2.0,9.0,86,0.19,,,0.06,Wunderground v.1.15,2013-04-23 18:54:00,
2013-04-23 14:55:00,49.4,45.4,29.92,WNW,296,1.0,9.0,86,0.19,,,0.06,Wunderground v.1.15,2013-04-23 18:55:00,
2013-04-23 14:57:00,49.0,45.3,29.92,WNW,290,0.0,9.0,87,0.21,,,0.07,Wunderground v.1.15,2013-04-23 18:57:00,
2013-04-23 14:58:00,49.0,45.3,29.92,WNW,290,0.0,9.0,87,0.21,,,0.07,Wunderground v.1.15,2013-04-23 18:58:00,
2013-04-23 14:59:00,48.9,45.2,29.91,WNW,290,1.0,9.0,87,0.21,,,0.07,Wunderground v.1.15,2013-04-23 18:59:00,
2013-04-23 15:00:00,48.8,45.4,29.91,WNW,287,0.0,2.0,88,0.26,,,0.08,Wunderground v.1.15,2013-04-23 19:00:00,
2013-04-23 15:01:00,48.7,45.3,29.91,WNW,291,0.0,2.0,88,0.26,,,0.08,Wunderground v.1.15,2013-04-23 19:01:00,
2013-04-23 15:03:00,48.4,45.0,29.91,NW,319,2.0,3.0,88,0.22,,,0.09,Wunderground v.1.15,2013-04-23 19:03:00,
2013-04-23 15:04:00,48.3,45.2,29.91,West,265,2.0,3.0,89,0.22,,,0.09,Wunderground v.1.15,2013-04-23 19:04:00,
2013-04-23 15:05:00,48.3,45.2,29.91,West,267,1.0,3.0,89,0.18,,,0.09,Wunderground v.1.15,2013-04-23 19:05:00,
2013-04-23 15:06:00,48.2,45.1,29.91,West,267,1.0,3.0,89,0.14,,,0.09,Wunderground v.1.15,2013-04-23 19:06:00,
2013-04-23 15:08:00,48.1,45.3,29.91,West,271,3.0,3.0,90,0.11,,,0.10,Wunderground v.1.15,2013-04-23 19:08:00,
2013-04-23 15:09:00,48.1,45.3,29.91,WNW,296,1.0,4.0,90,0.11,,,0.10,Wunderground v.1.15,2013-04-23 19:09:00,
2013-04-23 15:10:00,48.0,45.2,29.91,WNW,288,0.0,1.0,90,0.11,,,0.10,Wunderground v.1.15,2013-04-23 19:10:00,
2013-04-23 15:11:00,48.0,45.2,29.91,WNW,284,2.0,3.0,90,0.11,,,0.10,Wunderground v.1.15,2013-04-23 19:11:00,
2013-04-23 15:13:00,47.8,45.0,29.91,West,277,2.0,4.0,90,0.10,,,0.10,Wunderground v.1.15,2013-04-23 19:13:00,
2013-04-23 15:14:00,47.8,45.0,29.91,West,277,0.0,4.0,90,0.09,,,0.10,Wunderground v.1.15,2013-04-23 19:14:00,
2013-04-23 15:15:00,47.8,45.0,29.91,West,276,0.0,4.0,90,0.08,,,0.11,Wunderground v.1.15,2013-04-23 19:15:00,
2013-04-23 15:16:00,47.8,45.0,29.91,West,277,3.0,4.0,90,0.08,,,0.11,Wunderground v.1.15,2013-04-23 19:16:00,
2013-04-23 15:19:00,47.7,45.2,29.92,West,279,1.0,4.0,91,0.08,,,0.11,Wunderground v.1.15,2013-04-23 19:19:00,
2013-04-23 15:20:00,47.7,45.2,29.92,WSW,244,3.0,3.0,91,0.08,,,0.11,Wunderground v.1.15,2013-04-23 19:20:00,
2013-04-23 15:21:00,47.7,45.2,29.92,West,269,0.0,4.0,91,0.08,,,0.11,Wunderground v.1.15,2013-04-23 19:21:00,
2013-04-23 15:24:00,47.7,45.5,29.92,West,274,5.0,6.0,92,0.07,,,0.12,Wunderground v.1.15,2013-04-23 19:24:00,
2013-04-23 15:25:00,47.7,45.5,29.92,NW,313,3.0,6.0,92,0.07,,,0.12,Wunderground v.1.15,2013-04-23 19:25:00,
2013-04-23 15:26:00,47.7,45.5,29.92,NW,314,4.0,6.0,92,0.07,,,0.12,Wunderground v.1.15,2013-04-23 19:26:00,
2013-04-23 15:29:00,47.5,45.3,29.92,NNW,342,4.0,7.0,92,0.13,,,0.13,Wunderground v.1.15,2013-04-23 19:29:00,
2013-04-23 15:30:00,47.5,45.3,29.92,NW,322,5.0,5.0,92,0.13,,,0.13,Wunderground v.1.15,2013-04-23 19:30:00,
2013-04-23 15:31:00,47.4,45.2,29.92,NW,319,5.0,6.0,92,0.13,,,0.13,Wunderground v.1.15,2013-04-23 19:31:00,
2013-04-23 15:34:00,47.2,45.3,29.92,NW,309,5.0,11.0,93,0.09,,,0.13,Wunderground v.1.15,2013-04-23 19:34:00,
2013-04-23 15:35:00,47.1,45.2,29.92,WNW,296,7.0,11.0,93,0.09,,,0.14,Wunderground v.1.15,2013-04-23 19:35:00,
2013-04-23 15:36:00,47.0,45.1,29.92,NW,309,9.0,11.0,93,0.09,,,0.14,Wunderground v.1.15,2013-04-23 19:36:00,
2013-04-23 15:38:00,46.8,44.9,29.92,NNW,329,5.0,11.0,93,0.09,,,0.14,Wunderground v.1.15,2013-04-23 19:38:00,
2013-04-23 15:39:00,46.7,44.8,29.92,NW,321,6.0,11.0,93,0.09,,,0.14,Wunderground v.1.15,2013-04-23 19:39:00,
2013-04-23 15:40:00,46.7,44.8,29.92,NW,315,7.0,7.0,93,0.09,,,0.14,Wunderground v.1.15,2013-04-23 19:40:00,
2013-04-23 15:41:00,46.6,45.0,29.92,WNW,300,6.0,7.0,94,0.09,,,0.14,Wunderground v.1.15,2013-04-23 19:41:00,
2013-04-23 15:43:00,46.6,45.0,29.92,NW,308,4.0,7.0,94,0.09,,,0.15,Wunderground v.1.15,2013-04-23 19:43:00,
2013-04-23 15:45:00,46.5,44.9,29.92,NW,311,4.0,7.0,94,0.09,,,0.15,Wunderground v.1.15,2013-04-23 19:45:00,
2013-04-23 15:46:00,46.4,44.8,29.92,NW,313,0.0,7.0,94,0.09,,,0.15,Wunderground v.1.15,2013-04-23 19:46:00,
2013-04-23 15:49:00,46.4,44.8,29.92,WNW,301,0.0,7.0,94,0.08,,,0.15,Wunderground v.1.15,2013-04-23 19:49:00,
2013-04-23 15:50:00,46.5,44.9,29.92,WNW,300,2.0,3.0,94,0.07,,,0.15,Wunderground v.1.15,2013-04-23 19:50:00,
2013-04-23 15:51:00,46.5,44.9,29.91,WNW,301,1.0,3.0,94,0.06,,,0.15,Wunderground v.1.15,2013-04-23 19:51:00,
2013-04-23 15:52:00,46.5,44.9,29.91,WNW,300,0.0,3.0,94,0.06,,,0.16,Wunderground v.1.15,2013-04-23 19:52:00,
2013-04-23 15:54:00,46.6,45.2,29.91,WNW,301,1.0,3.0,95,0.06,,,0.16,Wunderground v.1.15,2013-04-23 19:54:00,
2013-04-23 15:55:00,46.6,45.2,29.91,WNW,301,0.0,3.0,95,0.06,,,0.16,Wunderground v.1.15,2013-04-23 19:55:00,
2013-04-23 15:56:00,46.6,45.2,29.91,WNW,300,0.0,3.0,95,0.06,,,0.16,Wunderground v.1.15,2013-04-23 19:56:00,
2013-04-23 15:57:00,46.6,45.2,29.91,WNW,301,0.0,3.0,95,0.06,,,0.16,Wunderground v.1.15,2013-04-23 19:57:00,
2013-04-23 15:59:00,46.7,45.3,29.91,WNW,301,0.0,3.0,95,0.10,,,0.17,Wunderground v.1.15,2013-04-23 19:59:00,
2013-04-23 16:00:00,46.7,45.3,29.91,WNW,301,0.0,0.0,95,0.10,,,0.17,Wunderground v.1.15,2013-04-23 20:00:00,
2013-04-23 16:01:00,46.7,45.3,29.91,WNW,300,0.0,0.0,95,0.10,,,0.17,Wunderground v.1.15,2013-04-23 20:01:00,
2013-04-23 16:02:00,46.7,45.3,29.91,WNW,301,0.0,0.0,95,0.10,,,0.17,Wunderground v.1.15,2013-04-23 20:02:00,
2013-04-23 16:05:00,46.8,45.4,29.91,WNW,301,0.0,0.0,95,0.08,,,0.17,Wunderground v.1.15,2013-04-23 20:05:00,
2013-04-23 16:06:00,46.9,45.5,29.91,WNW,300,0.0,0.0,95,0.07,,,0.17,Wunderground v.1.15,2013-04-23 20:06:00,
2013-04-23 16:07:00,46.9,45.5,29.91,WNW,300,0.0,0.0,95,0.06,,,0.17,Wunderground v.1.15,2013-04-23 20:07:00,
2013-04-23 16:09:00,47.1,45.7,29.90,WNW,300,2.0,2.0,95,0.05,,,0.17,Wunderground v.1.15,2013-04-23 20:09:00,
2013-04-23 16:10:00,47.1,45.7,29.90,WNW,301,1.0,1.0,95,0.05,,,0.17,Wunderground v.1.15,2013-04-23 20:10:00,
2013-04-23 16:11:00,47.1,45.7,29.91,WNW,300,0.0,2.0,95,0.04,,,0.17,Wunderground v.1.15,2013-04-23 20:11:00,
2013-04-23 16:12:00,47.0,45.6,29.91,WNW,301,0.0,2.0,95,0.04,,,0.17,Wunderground v.1.15,2013-04-23 20:12:00,
2013-04-23 16:14:00,47.0,45.6,29.91,WNW,301,0.0,2.0,95,0.04,,,0.18,Wunderground v.1.15,2013-04-23 20:14:00,
2013-04-23 16:16:00,47.0,45.6,29.91,WNW,301,0.0,2.0,95,0.04,,,0.18,Wunderground v.1.15,2013-04-23 20:16:00,
2013-04-23 16:17:00,47.0,45.6,29.91,WNW,301,0.0,2.0,95,0.04,,,0.18,Wunderground v.1.15,2013-04-23 20:17:00,
2013-04-23 16:19:00,47.0,45.6,29.90,WNW,300,0.0,2.0,95,0.04,,,0.18,Wunderground v.1.15,2013-04-23 20:19:00,
2013-04-23 16:21:00,47.1,45.7,29.90,WNW,301,1.0,1.0,95,0.07,,,0.18,Wunderground v.1.15,2013-04-23 20:21:00,
2013-04-23 16:22:00,47.1,46.0,29.90,NW,309,1.0,3.0,96,0.07,,,0.19,Wunderground v.1.15,2013-04-23 20:22:00,
2013-04-23 16:23:00,47.1,45.7,29.90,NW,309,1.0,3.0,95,0.07,,,0.19,Wunderground v.1.15,2013-04-23 20:23:00,
2013-04-23 16:24:00,47.0,45.6,29.90,NW,309,0.0,3.0,95,0.07,,,0.19,Wunderground v.1.15,2013-04-23 20:24:00,
2013-04-23 16:26:00,47.0,45.9,29.90,NW,309,0.0,3.0,96,0.07,,,0.19,Wunderground v.1.15,2013-04-23 20:26:00,
2013-04-23 16:27:00,47.1,46.0,29.90,NW,309,0.0,3.0,96,0.07,,,0.19,Wunderground v.1.15,2013-04-23 20:27:00,
2013-04-23 16:28:00,47.1,46.0,29.90,NW,309,0.0,3.0,96,0.07,,,0.19,Wunderground v.1.15,2013-04-23 20:28:00,
2013-04-23 16:29:00,47.1,46.0,29.90,NW,309,0.0,3.0,96,0.08,,,0.20,Wunderground v.1.15,2013-04-23 20:29:00,
2013-04-23 16:32:00,47.1,46.0,29.90,NW,309,0.0,2.0,96,0.08,,,0.20,Wunderground v.1.15,2013-04-23 20:32:00,
2013-04-23 16:34:00,47.1,46.0,29.90,West,265,0.0,2.0,96,0.08,,,0.20,Wunderground v.1.15,2013-04-23 20:34:00,
2013-04-23 16:35:00,47.1,46.0,29.90,West,265,0.0,2.0,96,0.08,,,0.20,Wunderground v.1.15,2013-04-23 20:35:00,
2013-04-23 16:37:00,47.1,46.0,29.90,West,265,0.0,2.0,96,0.09,,,0.21,Wunderground v.1.15,2013-04-23 20:37:00,
2013-04-23 16:39:00,47.1,46.0,29.90,NNW,327,1.0,2.0,96,0.09,,,0.21,Wunderground v.1.15,2013-04-23 20:39:00,
2013-04-23 16:40:00,47.1,46.0,29.90,NNW,327,0.0,0.0,96,0.09,,,0.21,Wunderground v.1.15,2013-04-23 20:40:00,
2013-04-23 16:41:00,47.1,46.0,29.89,NNW,327,0.0,0.0,96,0.09,,,0.21,Wunderground v.1.15,2013-04-23 20:41:00,
2013-04-23 16:42:00,47.1,46.0,29.89,NNW,327,0.0,0.0,96,0.09,,,0.21,Wunderground v.1.15,2013-04-23 20:42:00,
2013-04-23 16:43:00,47.1,46.0,29.89,NNW,327,1.0,1.0,96,0.08,,,0.21,Wunderground v.1.15,2013-04-23 20:43:00,
2013-04-23 16:44:00,47.1,46.0,29.90,NNW,330,4.0,4.0,96,0.07,,,0.21,Wunderground v.1.15,2013-04-23 20:44:00,
2013-04-23 16:45:00,47.0,45.9,29.89,NNW,329,3.0,4.0,96,0.06,,,0.21,Wunderground v.1.15,2013-04-23 20:45:00,
2013-04-23 16:46:00,47.0,45.9,29.89,NNW,329,3.0,4.0,96,0.05,,,0.21,Wunderground v.1.15,2013-04-23 20:46:00,
2013-04-23 16:47:00,46.9,45.8,29.89,NNW,329,4.0,4.0,96,0.05,,,0.22,Wunderground v.1.15,2013-04-23 20:47:00,
2013-04-23 16:48:00,46.8,45.7,29.89,NNW,329,5.0,5.0,96,0.05,,,0.22,Wunderground v.1.15,2013-04-23 20:48:00,
2013-04-23 16:50:00,46.7,45.6,29.90,NNW,335,9.0,9.0,96,0.05,,,0.22,Wunderground v.1.15,2013-04-23 20:50:00,
2013-04-23 16:52:00,46.4,45.3,29.90,NNW,344,6.0,10.0,96,0.05,,,0.22,Wunderground v.1.15,2013-04-23 20:52:00,
2013-04-23 16:53:00,46.1,45.0,29.90,NW,319,9.0,11.0,96,0.05,,,0.22,Wunderground v.1.15,2013-04-23 20:53:00,
2013-04-23 16:55:00,46.0,44.9,29.90,NW,322,8.0,11.0,96,0.05,,,0.22,Wunderground v.1.15,2013-04-23 20:55:00,
2013-04-23 16:57:00,45.6,44.5,29.90,North,360,9.0,12.0,96,0.07,,,0.23,Wunderground v.1.15,2013-04-23 20:57:00,
2013-04-23 16:58:00,45.6,44.5,29.90,North,10,9.0,12.0,96,0.07,,,0.23,Wunderground v.1.15,2013-04-23 20:58:00,
2013-04-23 16:59:00,45.5,44.4,29.90,NNE,14,10.0,12.0,96,0.07,,,0.23,Wunderground v.1.15,2013-04-23 20:59:00,
2013-04-23 17:00:00,45.0,43.9,29.90,North,360,15.0,15.0,96,0.07,,,0.23,Wunderground v.1.15,2013-04-23 21:00:00,
2013-04-23 17:02:00,44.5,43.4,29.91,NNW,342,19.0,19.0,96,0.07,,,0.23,Wunderground v.1.15,2013-04-23 21:02:00,
2013-04-23 17:03:00,44.2,42.9,29.91,NNW,348,16.0,19.0,95,0.07,,,0.23,Wunderground v.1.15,2013-04-23 21:03:00,
2013-04-23 17:04:00,43.8,42.5,29.91,North,9,13.0,19.0,95,0.07,,,0.23,Wunderground v.1.15,2013-04-23 21:04:00,
2013-04-23 17:05:00,43.6,42.5,29.91,North,9,11.0,19.0,96,0.06,,,0.23,Wunderground v.1.15,2013-04-23 21:05:00,
2013-04-23 17:07:00,43.3,42.2,29.91,North,11,13.0,19.0,96,0.05,,,0.23,Wunderground v.1.15,2013-04-23 21:07:00,
2013-04-23 17:08:00,43.0,41.9,29.91,NNE,14,11.0,19.0,96,0.05,,,0.23,Wunderground v.1.15,2013-04-23 21:08:00,
2013-04-23 17:09:00,42.9,41.8,29.91,North,9,14.0,19.0,96,0.04,,,0.23,Wunderground v.1.15,2013-04-23 21:09:00,
2013-04-23 17:10:00,42.8,41.7,29.91,NNE,15,8.0,14.0,96,0.04,,,0.23,Wunderground v.1.15,2013-04-23 21:10:00,
2013-04-23 17:12:00,42.7,41.6,29.91,NNE,15,10.0,14.0,96,0.00,,,0.23,Wunderground v.1.15,2013-04-23 21:12:00,
2013-04-23 17:14:00,42.6,41.5,29.91,NNE,17,13.0,15.0,96,0.00,,,0.23,Wunderground v.1.15,2013-04-23 21:14:00,
2013-04-23 17:15:00,42.5,41.4,29.91,North,9,12.0,16.0,96,0.00,,,0.23,Wunderground v.1.15,2013-04-23 21:15:00,
2013-04-23 17:18:00,42.2,41.1,29.91,NNW,341,15.0,16.0,96,0.00,,,0.23,Wunderground v.1.15,2013-04-23 21:18:00,
2013-04-23 17:19:00,42.1,41.3,29.91,NNE,14,10.0,16.0,97,0.00,,,0.23,Wunderground v.1.15,2013-04-23 21:19:00,
2013-04-23 17:20:00,42.0,40.9,29.91,NNE,29,11.0,11.0,96,0.00,,,0.23,Wunderground v.1.15,2013-04-23 21:20:00,
2013-04-23 17:23:00,41.9,41.1,29.91,NNE,14,10.0,14.0,97,0.00,,,0.23,Wunderground v.1.15,2013-04-23 21:23:00,
2013-04-23 17:24:00,41.9,41.1,29.91,NNE,23,12.0,14.0,97,0.00,,,0.23,Wunderground v.1.15,2013-04-23 21:24:00,
2013-04-23 17:25:00,41.9,41.1,29.91,NNE,28,10.0,14.0,97,0.00,,,0.23,Wunderground v.1.15,2013-04-23 21:25:00,
2013-04-23 17:29:00,41.8,41.0,29.91,NNE,26,10.0,16.0,97,0.00,,,0.23,Wunderground v.1.15,2013-04-23 21:29:00,
2013-04-23 17:30:00,41.8,41.0,29.90,NNE,26,15.0,15.0,97,0.00,,,0.23,Wunderground v.1.15,2013-04-23 21:30:00,
2013-04-23 17:34:00,41.5,40.7,29.90,North,10,14.0,19.0,97,0.00,,,0.23,Wunderground v.1.15,2013-04-23 21:34:00,
2013-04-23 17:35:00,41.5,40.7,29.91,NNE,19,10.0,19.0,97,0.00,,,0.23,Wunderground v.1.15,2013-04-23 21:35:00,
2013-04-23 17:36:00,41.6,40.8,29.90,NNE,26,14.0,19.0,97,0.00,,,0.23,Wunderground v.1.15,2013-04-23 21:36:00,
2013-04-23 17:39:00,41.5,40.7,29.90,NNE,18,8.0,19.0,97,0.00,,,0.23,Wunderground v.1.15,2013-04-23 21:39:00,
2013-04-23 17:40:00,41.5,40.7,29.91,NNE,15,11.0,12.0,97,0.00,,,0.23,Wunderground v.1.15,2013-04-23 21:40:00,
2013-04-23 17:41:00,41.5,40.7,29.91,NNE,12,10.0,12.0,97,0.00,,,0.24,Wunderground v.1.15,2013-04-23 21:41:00,
2013-04-23 17:44:00,41.3,40.5,29.91,NNE,15,9.0,16.0,97,0.00,,,0.24,Wunderground v.1.15,2013-04-23 21:44:00,
2013-04-23 17:45:00,41.3,40.5,29.91,NNE,23,12.0,16.0,97,0.00,,,0.24,Wunderground v.1.15,2013-04-23 21:45:00,
2013-04-23 17:46:00,41.2,40.4,29.91,NE,37,6.0,16.0,97,0.00,,,0.24,Wunderground v.1.15,2013-04-23 21:46:00,
2013-04-23 17:50:00,41.1,40.3,29.91,NNE,29,13.0,16.0,97,0.00,,,0.24,Wunderground v.1.15,2013-04-23 21:50:00,
2013-04-23 17:51:00,41.1,40.3,29.91,North,11,10.0,12.0,97,0.00,,,0.24,Wunderground v.1.15,2013-04-23 21:51:00,
2013-04-23 17:55:00,41.1,40.3,29.91,North,9,9.0,14.0,97,0.00,,,0.24,Wunderground v.1.15,2013-04-23 21:55:00,
2013-04-23 17:56:00,41.1,40.3,29.91,North,9,11.0,14.0,97,0.00,,,0.24,Wunderground v.1.15,2013-04-23 21:56:00,
2013-04-23 18:00:00,41.1,40.3,29.91,NNE,24,15.0,15.0,97,0.00,,,0.24,Wunderground v.1.15,2013-04-23 22:00:00,
2013-04-23 18:01:00,40.9,40.1,29.92,NNE,30,10.0,16.0,97,0.00,,,0.24,Wunderground v.1.15,2013-04-23 22:01:00,
2013-04-23 18:02:00,40.9,40.1,29.92,NE,35,10.0,16.0,97,0.00,,,0.24,Wunderground v.1.15,2013-04-23 22:02:00,
2013-04-23 18:05:00,40.9,40.1,29.92,North,10,12.0,16.0,97,0.00,,,0.24,Wunderground v.1.15,2013-04-23 22:05:00,
2013-04-23 18:06:00,40.9,40.1,29.92,NNE,15,11.0,16.0,97,0.00,,,0.24,Wunderground v.1.15,2013-04-23 22:06:00,
2013-04-23 18:07:00,40.9,40.1,29.92,North,360,11.0,16.0,97,0.00,,,0.24,Wunderground v.1.15,2013-04-23 22:07:00,
2013-04-23 18:10:00,40.8,40.0,29.92,NNE,24,11.0,13.0,97,0.00,,,0.24,Wunderground v.1.15,2013-04-23 22:10:00,
2013-04-23 18:12:00,40.7,39.9,29.92,NNE,25,11.0,14.0,97,0.00,,,0.24,Wunderground v.1.15,2013-04-23 22:12:00,
2013-04-23 18:15:00,40.7,39.9,29.92,NE,37,14.0,15.0,97,0.00,,,0.24,Wunderground v.1.15,2013-04-23 22:15:00,
2013-04-23 18:16:00,40.7,39.9,29.92,NNE,17,11.0,16.0,97,0.00,,,0.24,Wunderground v.1.15,2013-04-23 22:16:00,
2013-04-23 18:17:00,40.7,39.9,29.92,NNE,14,12.0,16.0,97,0.00,,,0.24,Wunderground v.1.15,2013-04-23 22:17:00,
2013-04-23 18:20:00,40.6,40.1,29.93,NNE,15,13.0,17.0,98,0.00,,,0.24,Wunderground v.1.15,2013-04-23 22:20:00,
2013-04-23 18:21:00,40.5,40.0,29.93,NNE,13,15.0,17.0,98,0.00,,,0.24,Wunderground v.1.15,2013-04-23 22:21:00,
2013-04-23 18:22:00,40.5,40.0,29.93,NNE,22,11.0,17.0,98,0.00,,,0.24,Wunderground v.1.15,2013-04-23 22:22:00,
2013-04-23 18:26:00,40.4,39.6,29.93,NNE,26,9.0,17.0,97,0.00,,,0.24,Wunderground v.1.15,2013-04-23 22:26:00,
2013-04-23 18:27:00,40.3,39.5,29.92,NNE,32,13.0,17.0,97,0.00,,,0.24,Wunderground v.1.15,2013-04-23 22:27:00,
2013-04-23 18:28:00,40.2,39.4,29.93,North,9,13.0,17.0,97,0.00,,,0.24,Wunderground v.1.15,2013-04-23 22:28:00,
2013-04-23 18:31:00,40.3,39.5,29.92,NNE,30,17.0,17.0,97,0.00,,,0.25,Wunderground v.1.15,2013-04-23 22:31:00,
2013-04-23 18:32:00,40.1,39.3,29.92,NNE,14,12.0,17.0,97,0.00,,,0.25,Wunderground v.1.15,2013-04-23 22:32:00,
2013-04-23 18:33:00,40.1,39.3,29.92,NE,40,14.0,17.0,97,0.00,,,0.25,Wunderground v.1.15,2013-04-23 22:33:00,
2013-04-23 18:36:00,39.7,38.9,29.92,NNE,17,6.0,17.0,97,0.00,,,0.25,Wunderground v.1.15,2013-04-23 22:36:00,
2013-04-23 18:38:00,39.7,38.9,29.92,NNE,30,5.0,17.0,97,0.00,,,0.25,Wunderground v.1.15,2013-04-23 22:38:00,
2013-04-23 18:42:00,39.7,38.9,29.92,North,350,11.0,17.0,97,0.00,,,0.25,Wunderground v.1.15,2013-04-23 22:42:00,
2013-04-23 18:43:00,39.7,38.9,29.92,North,360,10.0,17.0,97,0.00,,,0.25,Wunderground v.1.15,2013-04-23 22:43:00,
2013-04-23 18:44:00,39.8,39.3,29.92,NNE,21,11.0,17.0,98,0.00,,,0.25,Wunderground v.1.15,2013-04-23 22:44:00,
2013-04-23 18:47:00,39.8,39.3,29.92,NE,38,7.0,17.0,98,0.00,,,0.25,Wunderground v.1.15,2013-04-23 22:47:00,
2013-04-23 18:48:00,39.8,39.3,29.92,NNE,30,14.0,17.0,98,0.00,,,0.25,Wunderground v.1.15,2013-04-23 22:48:00,
2013-04-23 18:49:00,39.7,38.9,29.92,North,9,12.0,17.0,97,0.00,,,0.25,Wunderground v.1.15,2013-04-23 22:49:00,
2013-04-23 18:52:00,39.6,38.8,29.92,NE,37,12.0,17.0,97,0.00,,,0.25,Wunderground v.1.15,2013-04-23 22:52:00,
2013-04-23 18:53:00,39.8,39.3,29.92,North,350,6.0,17.0,98,0.00,,,0.25,Wunderground v.1.15,2013-04-23 22:53:00,
2013-04-23 18:54:00,39.8,39.3,29.92,NNE,17,14.0,17.0,98,0.00,,,0.25,Wunderground v.1.15,2013-04-23 22:54:00,
2013-04-23 18:55:00,39.9,39.4,29.93,NNE,17,14.0,17.0,98,0.00,,,0.25,Wunderground v.1.15,2013-04-23 22:55:00,
2013-04-23 18:57:00,40.0,39.5,29.93,NNE,18,10.0,17.0,98,0.00,,,0.25,Wunderground v.1.15,2013-04-23 22:57:00,
2013-04-23 18:59:00,39.9,39.4,29.93,NNE,17,10.0,18.0,98,0.00,,,0.25,Wunderground v.1.15,2013-04-23 22:59:00,
2013-04-23 19:01:00,39.8,39.3,29.92,NNE,15,10.0,14.0,98,0.00,,,0.25,Wunderground v.1.15,2013-04-23 23:01:00,
2013-04-23 19:02:00,39.8,39.3,29.92,NE,44,14.0,16.0,98,0.00,,,0.25,Wunderground v.1.15,2013-04-23 23:02:00,
2013-04-23 19:04:00,39.8,39.3,29.92,NNE,25,11.0,16.0,98,0.00,,,0.25,Wunderground v.1.15,2013-04-23 23:04:00,
2013-04-23 19:06:00,39.8,39.3,29.92,NNE,21,16.0,19.0,98,0.00,,,0.25,Wunderground v.1.15,2013-04-23 23:06:00,
2013-04-23 19:07:00,39.7,39.2,29.92,NNE,12,13.0,19.0,98,0.00,,,0.25,Wunderground v.1.15,2013-04-23 23:07:00,
2013-04-23 19:09:00,39.7,39.2,29.92,NNE,30,17.0,19.0,98,0.00,,,0.25,Wunderground v.1.15,2013-04-23 23:09:00,
2013-04-23 19:11:00,39.8,39.3,29.92,NNE,26,14.0,17.0,98,0.00,,,0.25,Wunderground v.1.15,2013-04-23 23:11:00,
2013-04-23 19:12:00,39.6,39.1,29.91,NE,40,17.0,17.0,98,0.00,,,0.25,Wunderground v.1.15,2013-04-23 23:12:00,
2013-04-23 19:14:00,39.5,39.0,29.92,NNE,17,10.0,17.0,98,0.00,,,0.25,Wunderground v.1.15,2013-04-23 23:14:00,
2013-04-23 19:15:00,39.5,39.0,29.92,North,355,9.0,17.0,98,0.00,,,0.25,Wunderground v.1.15,2013-04-23 23:15:00,
2013-04-23 19:16:00,39.5,39.0,29.92,NNE,30,13.0,17.0,98,0.00,,,0.26,Wunderground v.1.15,2013-04-23 23:16:00,
2013-04-23 19:17:00,39.4,38.9,29.92,NNW,348,11.0,17.0,98,0.00,,,0.26,Wunderground v.1.15,2013-04-23 23:17:00,
2013-04-23 19:20:00,39.3,38.8,29.92,NW,312,9.0,15.0,98,0.00,,,0.26,Wunderground v.1.15,2013-04-23 23:20:00,
2013-04-23 19:21:00,39.3,38.8,29.91,NNE,12,12.0,18.0,98,0.00,,,0.26,Wunderground v.1.15,2013-04-23 23:21:00,
2013-04-23 19:23:00,39.4,38.9,29.92,NNE,22,9.0,18.0,98,0.00,,,0.26,Wunderground v.1.15,2013-04-23 23:23:00,
2013-04-23 19:25:00,39.5,39.0,29.92,NNE,19,9.0,18.0,98,0.00,,,0.26,Wunderground v.1.15,2013-04-23 23:25:00,
2013-04-23 19:27:00,39.6,39.1,29.92,NNE,25,12.0,18.0,98,0.00,,,0.26,Wunderground v.1.15,2013-04-23 23:27:00,
2013-04-23 19:28:00,39.6,39.1,29.92,NNE,18,12.0,18.0,98,0.00,,,0.26,Wunderground v.1.15,2013-04-23 23:28:00,
2013-04-23 19:30:00,39.6,39.1,29.92,NNE,24,12.0,15.0,98,0.00,,,0.26,Wunderground v.1.15,2013-04-23 23:30:00,
2013-04-23 19:31:00,39.6,39.1,29.92,NNE,23,9.0,15.0,98,0.00,,,0.26,Wunderground v.1.15,2013-04-23 23:31:00,
2013-04-23 19:32:00,39.6,39.1,29.92,North,9,13.0,15.0,98,0.00,,,0.26,Wunderground v.1.15,2013-04-23 23:32:00,
2013-04-23 19:33:00,39.7,39.2,29.92,NNE,15,11.0,15.0,98,0.00,,,0.26,Wunderground v.1.15,2013-04-23 23:33:00,
2013-04-23 19:36:00,39.6,39.1,29.92,NE,37,12.0,17.0,98,0.00,,,0.26,Wunderground v.1.15,2013-04-23 23:36:00,
2013-04-23 19:37:00,39.5,39.0,29.92,NNE,13,9.0,17.0,98,0.00,,,0.26,Wunderground v.1.15,2013-04-23 23:37:00,
2013-04-23 19:38:00,39.6,39.1,29.92,NNE,17,6.0,17.0,98,0.00,,,0.26,Wunderground v.1.15,2013-04-23 23:38:00,
2013-04-23 19:41:00,39.5,39.0,29.92,NE,36,10.0,14.0,98,0.00,,,0.26,Wunderground v.1.15,2013-04-23 23:41:00,
2013-04-23 19:42:00,39.5,39.0,29.92,NNE,22,13.0,14.0,98,0.00,,,0.26,Wunderground v.1.15,2013-04-23 23:42:00,
2013-04-23 19:43:00,39.5,39.0,29.92,NNE,19,10.0,14.0,98,0.00,,,0.26,Wunderground v.1.15,2013-04-23 23:43:00,
2013-04-23 19:44:00,39.6,39.1,29.91,NNE,25,11.0,17.0,98,0.00,,,0.26,Wunderground v.1.15,2013-04-23 23:44:00,
2013-04-23 19:47:00,39.5,39.0,29.92,NNE,29,8.0,17.0,98,0.00,,,0.26,Wunderground v.1.15,2013-04-23 23:47:00,
2013-04-23 19:48:00,39.4,38.9,29.91,NE,35,13.0,17.0,98,0.00,,,0.26,Wunderground v.1.15,2013-04-23 23:48:00,
2013-04-23 19:49:00,39.3,38.8,29.91,NNE,22,11.0,17.0,98,0.00,,,0.26,Wunderground v.1.15,2013-04-23 23:49:00,
2013-04-23 19:52:00,39.2,38.7,29.91,NNE,33,15.0,16.0,98,0.00,,,0.26,Wunderground v.1.15,2013-04-23 23:52:00,
2013-04-23 19:53:00,39.2,38.7,29.91,NNE,20,15.0,16.0,98,0.00,,,0.26,Wunderground v.1.15,2013-04-23 23:53:00,
2013-04-23 19:54:00,39.1,38.3,29.91,NE,39,13.0,17.0,97,0.00,,,0.26,Wunderground v.1.15,2013-04-23 23:54:00,
2013-04-23 19:57:00,39.0,38.2,29.91,NE,34,16.0,22.0,97,0.00,,,0.26,Wunderground v.1.15,2013-04-23 23:57:00,
2013-04-23 19:58:00,39.0,38.2,29.91,ENE,62,11.0,22.0,97,0.00,,,0.26,Wunderground v.1.15,2013-04-23 23:58:00,
2013-04-23 20:00:00,39.0,38.2,29.91,NNE,17,9.0,22.0,97,0.00,,,0.26,Wunderground v.1.15,2013-04-24 00:00:00,
2013-04-23 20:02:00,39.0,38.5,29.91,NE,44,15.0,18.0,98,0.00,,,0.26,Wunderground v.1.15,2013-04-24 00:02:00,
2013-04-23 20:03:00,38.9,38.4,29.91,NNE,26,10.0,18.0,98,0.00,,,0.26,Wunderground v.1.15,2013-04-24 00:03:00,
2013-04-23 20:05:00,39.1,38.6,29.91,NNE,18,11.0,18.0,98,0.00,,,0.26,Wunderground v.1.15,2013-04-24 00:05:00,
2013-04-23 20:08:00,39.3,38.8,29.92,NNE,25,12.0,18.0,98,0.00,,,0.26,Wunderground v.1.15,2013-04-24 00:08:00,
2013-04-23 20:09:00,39.3,38.8,29.92,North,360,12.0,18.0,98,0.00,,,0.26,Wunderground v.1.15,2013-04-24 00:09:00,
2013-04-23 20:10:00,39.3,38.8,29.92,NNE,30,12.0,13.0,98,0.00,,,0.26,Wunderground v.1.15,2013-04-24 00:10:00,
2013-04-23 20:13:00,39.4,38.9,29.92,NE,46,13.0,15.0,98,0.00,,,0.26,Wunderground v.1.15,2013-04-24 00:13:00,
2013-04-23 20:14:00,39.4,38.9,29.91,NNE,25,13.0,19.0,98,0.00,,,0.26,Wunderground v.1.15,2013-04-24 00:14:00,
2013-04-23 20:15:00,39.3,38.8,29.92,NNE,30,13.0,19.0,98,0.00,,,0.26,Wunderground v.1.15,2013-04-24 00:15:00,
2013-04-23 20:18:00,39.3,38.8,29.92,NNE,14,10.0,19.0,98,0.00,,,0.26,Wunderground v.1.15,2013-04-24 00:18:00,
2013-04-23 20:19:00,39.4,38.9,29.92,NNE,26,13.0,19.0,98,0.00,,,0.26,Wunderground v.1.15,2013-04-24 00:19:00,
2013-04-23 20:20:00,39.4,38.9,29.92,NNE,28,11.0,13.0,98,0.00,,,0.26,Wunderground v.1.15,2013-04-24 00:20:00,
2013-04-23 20:23:00,39.4,38.9,29.93,North,360,12.0,15.0,98,0.00,,,0.26,Wunderground v.1.15,2013-04-24 00:23:00,
2013-04-23 20:24:00,39.5,39.0,29.93,NNE,13,11.0,15.0,98,0.00,,,0.26,Wunderground v.1.15,2013-04-24 00:24:00,
2013-04-23 20:25:00,39.5,39.0,29.93,NNE,32,10.0,15.0,98,0.00,,,0.26,Wunderground v.1.15,2013-04-24 00:25:00,
2013-04-23 20:28:00,39.3,38.8,29.93,NNE,14,10.0,15.0,98,0.00,,,0.27,Wunderground v.1.15,2013-04-24 00:28:00,
2013-04-23 20:29:00,39.3,38.8,29.93,NNE,14,13.0,15.0,98,0.00,,,0.27,Wunderground v.1.15,2013-04-24 00:29:00,
2013-04-23 20:30:00,39.4,38.9,29.93,NNE,24,12.0,16.0,98,0.00,,,0.27,Wunderground v.1.15,2013-04-24 00:30:00,
2013-04-23 20:31:00,39.4,38.9,29.93,North,360,14.0,16.0,98,0.00,,,0.27,Wunderground v.1.15,2013-04-24 00:31:00,
2013-04-23 20:33:00,39.4,38.9,29.92,NNE,18,15.0,16.0,98,0.00,,,0.27,Wunderground v.1.15,2013-04-24 00:33:00,
2013-04-23 20:35:00,39.4,38.9,29.92,NNE,29,14.0,16.0,98,0.00,,,0.27,Wunderground v.1.15,2013-04-24 00:35:00,
2013-04-23 20:36:00,39.4,38.9,29.92,NNE,15,12.0,16.0,98,0.00,,,0.27,Wunderground v.1.15,2013-04-24 00:36:00,
2013-04-23 20:38:00,39.4,38.9,29.92,North,360,12.0,16.0,98,0.00,,,0.27,Wunderground v.1.15,2013-04-24 00:38:00,
2013-04-23 20:39:00,39.4,38.9,29.92,North,9,13.0,16.0,98,0.00,,,0.27,Wunderground v.1.15,2013-04-24 00:39:00,
2013-04-23 20:40:00,39.4,38.9,29.92,NNE,28,14.0,15.0,98,0.00,,,0.27,Wunderground v.1.15,2013-04-24 00:40:00,
2013-04-23 20:41:00,39.4,38.9,29.92,North,355,12.0,15.0,98,0.00,,,0.27,Wunderground v.1.15,2013-04-24 00:41:00,
2013-04-23 20:44:00,39.3,38.8,29.93,North,9,11.0,17.0,98,0.00,,,0.27,Wunderground v.1.15,2013-04-24 00:44:00,
2013-04-23 20:45:00,39.5,39.0,29.92,North,10,13.0,17.0,98,0.00,,,0.27,Wunderground v.1.15,2013-04-24 00:45:00,
2013-04-23 20:46:00,39.4,38.9,29.92,NNE,18,14.0,17.0,98,0.00,,,0.27,Wunderground v.1.15,2013-04-24 00:46:00,
2013-04-23 20:49:00,39.3,38.8,29.92,NNE,15,13.0,20.0,98,0.00,,,0.27,Wunderground v.1.15,2013-04-24 00:49:00,
2013-04-23 20:50:00,39.3,38.8,29.92,North,9,13.0,14.0,98,0.00,,,0.27,Wunderground v.1.15,2013-04-24 00:50:00,
2013-04-23 20:51:00,39.4,38.9,29.92,NNE,24,15.0,19.0,98,0.00,,,0.27,Wunderground v.1.15,2013-04-24 00:51:00,
2013-04-23 20:52:00,39.4,38.9,29.92,NNE,31,15.0,19.0,98,0.00,,,0.27,Wunderground v.1.15,2013-04-24 00:52:00,
2013-04-23 20:55:00,39.4,38.9,29.93,North,9,17.0,21.0,98,0.00,,,0.27,Wunderground v.1.15,2013-04-24 00:55:00,
2013-04-23 20:56:00,39.4,38.9,29.93,NNE,12,16.0,22.0,98,0.00,,,0.27,Wunderground v.1.15,2013-04-24 00:56:00,
2013-04-23 20:57:00,39.3,38.8,29.93,North,9,20.0,22.0,98,0.00,,,0.27,Wunderground v.1.15,2013-04-24 00:57:00,
2013-04-23 21:00:00,39.3,38.8,29.93,NNE,13,13.0,17.0,98,0.00,,,0.27,Wunderground v.1.15,2013-04-24 01:00:00,
2013-04-23 21:01:00,39.4,38.9,29.93,NNE,13,13.0,17.0,98,0.00,,,0.27,Wunderground v.1.15,2013-04-24 01:01:00,
2013-04-23 21:02:00,39.4,38.9,29.94,NNE,18,16.0,17.0,98,0.00,,,0.27,Wunderground v.1.15,2013-04-24 01:02:00,
2013-04-23 21:05:00,39.3,38.8,29.94,North,355,20.0,21.0,98,0.00,,,0.27,Wunderground v.1.15,2013-04-24 01:05:00,
2013-04-23 21:06:00,39.3,38.8,29.94,NNE,14,17.0,21.0,98,0.00,,,0.27,Wunderground v.1.15,2013-04-24 01:06:00,
2013-04-23 21:07:00,39.3,38.8,29.93,North,9,16.0,21.0,98,0.00,,,0.27,Wunderground v.1.15,2013-04-24 01:07:00,
2013-04-23 21:10:00,39.3,38.8,29.93,NNE,13,13.0,17.0,98,0.00,,,0.27,Wunderground v.1.15,2013-04-24 01:10:00,
2013-04-23 21:11:00,39.3,38.8,29.93,North,11,18.0,19.0,98,0.00,,,0.27,Wunderground v.1.15,2013-04-24 01:11:00,
2013-04-23 21:12:00,39.3,38.8,29.93,North,9,14.0,19.0,98,0.00,,,0.27,Wunderground v.1.15,2013-04-24 01:12:00,
2013-04-23 21:16:00,39.5,39.0,29.93,North,355,20.0,20.0,98,0.00,,,0.28,Wunderground v.1.15,2013-04-24 01:16:00,
2013-04-23 21:17:00,39.4,38.9,29.93,NNE,13,14.0,20.0,98,0.00,,,0.28,Wunderground v.1.15,2013-04-24 01:17:00,
2013-04-23 21:21:00,39.4,38.9,29.93,NNE,14,13.0,16.0,98,0.00,,,0.28,Wunderground v.1.15,2013-04-24 01:21:00,
2013-04-23 21:22:00,39.3,38.8,29.93,NNE,19,12.0,16.0,98,0.00,,,0.28,Wunderground v.1.15,2013-04-24 01:22:00,
2013-04-23 21:26:00,39.3,38.8,29.94,NNE,15,13.0,18.0,98,0.00,,,0.28,Wunderground v.1.15,2013-04-24 01:26:00,
2013-04-23 21:27:00,39.3,38.8,29.94,North,9,13.0,18.0,98,0.00,,,0.28,Wunderground v.1.15,2013-04-24 01:27:00,
2013-04-23 21:28:00,39.2,38.7,29.94,North,9,13.0,18.0,98,0.00,,,0.28,Wunderground v.1.15,2013-04-24 01:28:00,
2013-04-23 21:32:00,39.3,38.8,29.94,NNE,16,11.0,15.0,98,0.00,,,0.28,Wunderground v.1.15,2013-04-24 01:32:00,
2013-04-23 21:33:00,39.3,38.8,29.94,NNE,12,11.0,15.0,98,0.00,,,0.28,Wunderground v.1.15,2013-04-24 01:33:00,
2013-04-23 21:37:00,39.2,38.7,29.94,NNE,19,10.0,17.0,98,0.00,,,0.29,Wunderground v.1.15,2013-04-24 01:37:00,
2013-04-23 21:38:00,39.2,38.7,29.94,North,9,12.0,17.0,98,0.00,,,0.29,Wunderground v.1.15,2013-04-24 01:38:00,
2013-04-23 21:42:00,39.2,38.7,29.94,NNE,13,12.0,15.0,98,0.00,,,0.29,Wunderground v.1.15,2013-04-24 01:42:00,
2013-04-23 21:43:00,39.2,38.7,29.94,NNE,28,13.0,15.0,98,0.00,,,0.29,Wunderground v.1.15,2013-04-24 01:43:00,
2013-04-23 21:47:00,39.3,38.8,29.95,NNE,28,14.0,16.0,98,0.06,,,0.30,Wunderground v.1.15,2013-04-24 01:47:00,
2013-04-23 21:48:00,39.3,38.8,29.95,NNE,14,10.0,16.0,98,0.06,,,0.30,Wunderground v.1.15,2013-04-24 01:48:00,
2013-04-23 21:49:00,39.2,38.7,29.95,NNE,28,13.0,16.0,98,0.06,,,0.30,Wunderground v.1.15,2013-04-24 01:49:00,
2013-04-23 21:53:00,39.1,38.6,29.95,NNE,28,10.0,17.0,98,0.09,,,0.31,Wunderground v.1.15,2013-04-24 01:53:00,
2013-04-23 21:54:00,39.1,38.6,29.95,NNE,22,13.0,17.0,98,0.09,,,0.31,Wunderground v.1.15,2013-04-24 01:54:00,
2013-04-23 21:55:00,39.1,38.6,29.95,NNE,26,11.0,17.0,98,0.09,,,0.31,Wunderground v.1.15,2013-04-24 01:55:00,
2013-04-23 21:58:00,39.0,38.5,29.95,NNE,21,12.0,17.0,98,0.11,,,0.32,Wunderground v.1.15,2013-04-24 01:58:00,
2013-04-23 21:59:00,39.1,38.6,29.94,NNW,344,13.0,17.0,98,0.11,,,0.32,Wunderground v.1.15,2013-04-24 01:59:00,
2013-04-23 22:00:00,39.1,38.6,29.94,NNE,29,9.0,12.0,98,0.11,,,0.32,Wunderground v.1.15,2013-04-24 02:00:00,
2013-04-23 22:03:00,39.1,38.6,29.93,NNE,14,10.0,16.0,98,0.11,,,0.32,Wunderground v.1.15,2013-04-24 02:03:00,
2013-04-23 22:04:00,39.0,38.5,29.93,North,11,10.0,16.0,98,0.09,,,0.32,Wunderground v.1.15,2013-04-24 02:04:00,
2013-04-23 22:05:00,39.0,38.5,29.93,NNE,14,14.0,16.0,98,0.08,,,0.32,Wunderground v.1.15,2013-04-24 02:05:00,
2013-04-23 22:08:00,38.9,38.4,29.94,NNE,15,12.0,16.0,98,0.06,,,0.32,Wunderground v.1.15,2013-04-24 02:08:00,
2013-04-23 22:09:00,38.9,38.4,29.94,NNE,13,11.0,16.0,98,0.05,,,0.32,Wunderground v.1.15,2013-04-24 02:09:00,
2013-04-23 22:10:00,38.9,38.4,29.94,NNE,13,12.0,12.0,98,0.05,,,0.32,Wunderground v.1.15,2013-04-24 02:10:00,
2013-04-23 22:11:00,38.9,38.4,29.94,NNE,15,12.0,15.0,98,0.05,,,0.33,Wunderground v.1.15,2013-04-24 02:11:00,
2013-04-23 22:13:00,38.8,38.3,29.94,NNE,22,10.0,16.0,98,0.05,,,0.33,Wunderground v.1.15,2013-04-24 02:13:00,
2013-04-23 22:15:00,38.8,38.3,29.93,North,360,12.0,16.0,98,0.05,,,0.33,Wunderground v.1.15,2013-04-24 02:15:00,
2013-04-23 22:16:00,38.8,38.3,29.93,North,9,12.0,17.0,98,0.05,,,0.33,Wunderground v.1.15,2013-04-24 02:16:00,
2013-04-23 22:18:00,38.7,38.2,29.93,NNE,32,14.0,17.0,98,0.05,,,0.33,Wunderground v.1.15,2013-04-24 02:18:00,
2013-04-23 22:21:00,38.9,38.4,29.93,NNE,23,16.0,16.0,98,0.05,,,0.33,Wunderground v.1.15,2013-04-24 02:21:00,
2013-04-23 22:22:00,38.9,38.4,29.93,NNE,26,12.0,18.0,98,0.05,,,0.34,Wunderground v.1.15,2013-04-24 02:22:00,
2013-04-23 22:24:00,38.9,38.4,29.93,NNE,21,10.0,18.0,98,0.05,,,0.34,Wunderground v.1.15,2013-04-24 02:24:00,
2013-04-23 22:26:00,38.9,38.4,29.93,NNE,27,12.0,18.0,98,0.05,,,0.34,Wunderground v.1.15,2013-04-24 02:26:00,
2013-04-23 22:27:00,38.9,38.4,29.93,NNE,22,14.0,18.0,98,0.05,,,0.34,Wunderground v.1.15,2013-04-24 02:27:00,
2013-04-23 22:30:00,38.7,38.2,29.93,North,360,14.0,14.0,98,0.05,,,0.34,Wunderground v.1.15,2013-04-24 02:30:00,
2013-04-23 22:32:00,38.7,38.2,29.93,NNE,13,12.0,15.0,98,0.05,,,0.34,Wunderground v.1.15,2013-04-24 02:32:00,
2013-04-23 22:35:00,38.8,38.3,29.93,North,11,11.0,16.0,98,0.04,,,0.34,Wunderground v.1.15,2013-04-24 02:35:00,
2013-04-23 22:37:00,38.8,38.3,29.93,North,9,13.0,16.0,98,0.04,,,0.34,Wunderground v.1.15,2013-04-24 02:37:00,
2013-04-23 22:38:00,38.8,38.3,29.93,NNE,12,14.0,16.0,98,0.04,,,0.34,Wunderground v.1.15,2013-04-24 02:38:00,
2013-04-23 22:41:00,38.7,38.2,29.93,NE,36,14.0,14.0,98,0.00,,,0.34,Wunderground v.1.15,2013-04-24 02:41:00,
2013-04-23 22:42:00,38.6,38.1,29.93,NNE,17,16.0,16.0,98,0.00,,,0.34,Wunderground v.1.15,2013-04-24 02:42:00,
2013-04-23 22:43:00,38.6,38.1,29.93,North,11,8.0,16.0,98,0.00,,,0.34,Wunderground v.1.15,2013-04-24 02:43:00,
2013-04-23 22:46:00,38.6,38.1,29.93,NNE,15,13.0,16.0,98,0.00,,,0.34,Wunderground v.1.15,2013-04-24 02:46:00,
2013-04-23 22:47:00,38.7,38.2,29.93,NNE,17,13.0,16.0,98,0.00,,,0.35,Wunderground v.1.15,2013-04-24 02:47:00,
2013-04-23 22:48:00,38.6,38.1,29.93,NNE,12,13.0,16.0,98,0.00,,,0.35,Wunderground v.1.15,2013-04-24 02:48:00,
2013-04-23 22:49:00,38.6,38.1,29.93,NNE,32,14.0,16.0,98,0.00,,,0.35,Wunderground v.1.15,2013-04-24 02:49:00,
2013-04-23 22:52:00,38.6,38.1,29.92,NNE,28,18.0,18.0,98,0.00,,,0.35,Wunderground v.1.15,2013-04-24 02:52:00,
2013-04-23 22:53:00,38.6,38.1,29.92,NNE,14,9.0,18.0,98,0.00,,,0.35,Wunderground v.1.15,2013-04-24 02:53:00,
2013-04-23 22:54:00,38.5,38.0,29.93,NNE,28,14.0,18.0,98,0.00,,,0.35,Wunderground v.1.15,2013-04-24 02:54:00,
2013-04-23 22:57:00,38.4,37.9,29.92,North,9,14.0,18.0,98,0.00,,,0.35,Wunderground v.1.15,2013-04-24 02:57:00,
2013-04-23 22:59:00,38.3,37.8,29.92,North,9,13.0,18.0,98,0.00,,,0.35,Wunderground v.1.15,2013-04-24 02:59:00,
2013-04-23 23:03:00,38.3,37.8,29.92,NNE,25,12.0,17.0,98,0.00,,,0.35,Wunderground v.1.15,2013-04-24 03:03:00,
2013-04-23 23:04:00,38.3,37.8,29.92,NNE,13,12.0,17.0,98,0.00,,,0.35,Wunderground v.1.15,2013-04-24 03:04:00,
2013-04-23 23:08:00,38.3,37.8,29.92,NNE,22,12.0,17.0,98,0.00,,,0.35,Wunderground v.1.15,2013-04-24 03:08:00,
2013-04-23 23:09:00,38.3,37.8,29.92,NNE,14,8.0,17.0,98,0.00,,,0.35,Wunderground v.1.15,2013-04-24 03:09:00,
2013-04-23 23:10:00,38.3,37.8,29.92,NNE,28,11.0,13.0,98,0.00,,,0.35,Wunderground v.1.15,2013-04-24 03:10:00,
2013-04-23 23:14:00,38.3,37.8,29.91,NNE,30,8.0,15.0,98,0.00,,,0.35,Wunderground v.1.15,2013-04-24 03:14:00,
2013-04-23 23:15:00,38.2,37.7,29.91,NNE,28,9.0,15.0,98,0.00,,,0.35,Wunderground v.1.15,2013-04-24 03:15:00,
2013-04-23 23:19:00,38.1,37.6,29.91,NE,34,14.0,18.0,98,0.00,,,0.35,Wunderground v.1.15,2013-04-24 03:19:00,
2013-04-23 23:20:00,38.1,37.6,29.91,NNE,17,11.0,12.0,98,0.00,,,0.35,Wunderground v.1.15,2013-04-24 03:20:00,
2013-04-23 23:21:00,38.0,37.5,29.91,NE,34,17.0,19.0,98,0.00,,,0.35,Wunderground v.1.15,2013-04-24 03:21:00,
2013-04-23 23:25:00,37.9,37.4,29.90,NNE,24,16.0,19.0,98,0.00,,,0.35,Wunderground v.1.15,2013-04-24 03:25:00,
2013-04-23 23:26:00,37.8,37.3,29.90,NE,40,9.0,21.0,98,0.00,,,0.35,Wunderground v.1.15,2013-04-24 03:26:00,
2013-04-23 23:30:00,38.0,37.5,29.91,NNE,22,9.0,13.0,98,0.00,,,0.35,Wunderground v.1.15,2013-04-24 03:30:00,
2013-04-23 23:31:00,38.0,37.5,29.91,NNE,15,13.0,15.0,98,0.00,,,0.35,Wunderground v.1.15,2013-04-24 03:31:00,
2013-04-23 23:32:00,38.1,37.6,29.91,North,11,10.0,15.0,98,0.00,,,0.35,Wunderground v.1.15,2013-04-24 03:32:00,
2013-04-23 23:35:00,38.4,37.9,29.91,NNE,19,11.0,15.0,98,0.00,,,0.35,Wunderground v.1.15,2013-04-24 03:35:00,
2013-04-23 23:36:00,38.4,37.9,29.91,NNW,347,13.0,17.0,98,0.00,,,0.35,Wunderground v.1.15,2013-04-24 03:36:00,
2013-04-23 23:37:00,38.3,37.8,29.92,NNE,19,13.0,17.0,98,0.00,,,0.35,Wunderground v.1.15,2013-04-24 03:37:00,
2013-04-23 23:40:00,38.3,37.8,29.92,NNE,33,12.0,13.0,98,0.00,,,0.35,Wunderground v.1.15,2013-04-24 03:40:00,
2013-04-23 23:41:00,38.3,37.8,29.92,North,9,13.0,16.0,98,0.00,,,0.35,Wunderground v.1.15,2013-04-24 03:41:00,
2013-04-23 23:42:00,38.2,37.7,29.92,NNE,28,16.0,16.0,98,0.00,,,0.35,Wunderground v.1.15,2013-04-24 03:42:00,
2013-04-23 23:43:00,38.1,37.6,29.92,NNE,28,16.0,18.0,98,0.00,,,0.35,Wunderground v.1.15,2013-04-24 03:43:00,
2013-04-23 23:46:00,38.2,37.7,29.91,NNE,33,12.0,18.0,98,0.00,,,0.35,Wunderground v.1.15,2013-04-24 03:46:00,
2013-04-23 23:47:00,38.2,37.7,29.91,North,9,11.0,18.0,98,0.00,,,0.35,Wunderground v.1.15,2013-04-24 03:47:00,
2013-04-23 23:49:00,38.1,37.6,29.91,NNE,28,12.0,18.0,98,0.00,,,0.35,Wunderground v.1.15,2013-04-24 03:49:00,
2013-04-23 23:52:00,38.2,37.7,29.92,NNW,348,12.0,18.0,98,0.00,,,0.35,Wunderground v.1.15,2013-04-24 03:52:00,
2013-04-23 23:54:00,38.2,37.7,29.91,NNE,33,13.0,18.0,98,0.00,,,0.35,Wunderground v.1.15,2013-04-24 03:54:00,
2013-04-23 23:57:00,38.3,37.8,29.91,NNE,28,17.0,18.0,98,0.00,,,0.35,Wunderground v.1.15,2013-04-24 03:57:00,
2013-04-23 23:59:00,38.2,37.7,29.91,NNE,24,16.0,18.0,98,0.00,,,0.35,Wunderground v.1.15,2013-04-24 03:59:00,